<?xml version='1.0' encoding='UTF-8'?>
<gpx xmlns="http://www.topografix.com/GPX/1/1" creator="www.balnam.be" version="1.1" xmlns:xsi="http://www.w3.org/2001/XMLSchema-instance" xsi:schemaLocation="http://www.topografix.com/GPX/1/1 http://www.topografix.com/GPX/1/1/gpx.xsd">
<trk>
<name>hlsgh1</name>
<cmt>v</cmt>
<desc>Ghoy Chemin n°1 </desc>
<link href="https://chemins.be/ghoy/chemin/1"/><trkseg>
<trkpt lat="50.739079" lon="3.823223"><time>2026-05-02T22:23:25Z</time></trkpt>
<trkpt lat="50.740559" lon="3.823553"><time>2026-05-02T22:33:25Z</time></trkpt>
<trkpt lat="50.741408" lon="3.823349"><time>2026-05-02T22:43:25Z</time></trkpt>
</trkseg>
</trk>
<trk>
<name>hlsgh100</name>
<cmt>q</cmt>
<desc>Ghoy Sentier n°100 </desc>
<link href="https://chemins.be/ghoy/sentier/100"/><trkseg>
<trkpt lat="50.725440" lon="3.795216"><time>2026-05-02T22:23:25Z</time></trkpt>
<trkpt lat="50.723092" lon="3.795457"><time>2026-05-02T22:33:25Z</time></trkpt>
<trkpt lat="50.722125" lon="3.795800"><time>2026-05-02T22:43:25Z</time></trkpt>
<trkpt lat="50.721147" lon="3.795800"><time>2026-05-02T22:53:25Z</time></trkpt>
</trkseg>
</trk>
<trk>
<name>hlsgh101</name>
<cmt>q</cmt>
<desc>Ghoy Sentier n°101 </desc>
<link href="https://chemins.be/ghoy/sentier/101"/><trkseg>
<trkpt lat="50.726489" lon="3.811631"><time>2026-05-02T22:23:25Z</time></trkpt>
<trkpt lat="50.725892" lon="3.812176"><time>2026-05-02T22:33:25Z</time></trkpt>
<trkpt lat="50.725865" lon="3.812064"><time>2026-05-02T22:43:25Z</time></trkpt>
<trkpt lat="50.724514" lon="3.813206"><time>2026-05-02T22:53:25Z</time></trkpt>
<trkpt lat="50.723585" lon="3.813652"><time>2026-05-02T23:03:25Z</time></trkpt>
<trkpt lat="50.722799" lon="3.813742"><time>2026-05-02T23:13:25Z</time></trkpt>
<trkpt lat="50.722360" lon="3.813815"><time>2026-05-02T23:23:25Z</time></trkpt>
</trkseg>
</trk>
<trk>
<name>hlsgh102</name>
<cmt>q</cmt>
<desc>Ghoy Sentier n°102 </desc>
<link href="https://chemins.be/ghoy/sentier/102"/><trkseg>
<trkpt lat="50.722724" lon="3.813305"><time>2026-05-02T22:23:25Z</time></trkpt>
<trkpt lat="50.723083" lon="3.815583"><time>2026-05-02T22:33:25Z</time></trkpt>
</trkseg>
</trk>
<trk>
<name>hlsgh103</name>
<cmt>q</cmt>
<desc>Ghoy Sentier n°103 </desc>
<link href="https://chemins.be/ghoy/sentier/103"/><trkseg>
<trkpt lat="50.720469" lon="3.816417"><time>2026-05-02T22:23:25Z</time></trkpt>
<trkpt lat="50.719517" lon="3.816133"><time>2026-05-02T22:33:25Z</time></trkpt>
</trkseg>
</trk>
<trk>
<name>hlsgh105</name>
<cmt>v</cmt>
<desc>Ghoy Chemin n°105 </desc>
<link href="https://chemins.be/ghoy/chemin/105"/><trkseg>
<trkpt lat="50.726128" lon="3.823619"><time>2026-05-02T22:23:25Z</time></trkpt>
<trkpt lat="50.726821" lon="3.825829"><time>2026-05-02T22:33:25Z</time></trkpt>
</trkseg>
</trk>
<trk>
<name>hlsgh106</name>
<cmt>d</cmt>
<desc>Ghoy Chemin n°106 </desc>
<link href="https://chemins.be/ghoy/chemin/106"/><trkseg>
<trkpt lat="50.722709" lon="3.827102"><time>2026-05-02T22:23:25Z</time></trkpt>
<trkpt lat="50.723288" lon="3.827484"><time>2026-05-02T22:33:25Z</time></trkpt>
<trkpt lat="50.724438" lon="3.826952"><time>2026-05-02T22:43:25Z</time></trkpt>
<trkpt lat="50.725323" lon="3.827589"><time>2026-05-02T22:53:25Z</time></trkpt>
</trkseg>
</trk>
<trk>
<name>hlsgh107</name>
<cmt>v</cmt>
<desc>Ghoy Chemin n°107 Chemin d'Esquimbreucq / Chemin Bercquet</desc>
<link href="https://chemins.be/ghoy/chemin/107"/><trkseg>
<trkpt lat="50.722144" lon="3.827452"><time>2026-05-02T22:23:25Z</time></trkpt>
<trkpt lat="50.722088" lon="3.829082"><time>2026-05-02T22:33:25Z</time></trkpt>
<trkpt lat="50.722235" lon="3.829675"><time>2026-05-02T22:43:25Z</time></trkpt>
</trkseg></trk>
<trk>
<name>hlsgh107</name>
<cmt>d</cmt>
<desc>Ghoy Chemin n°107 Chemin d'Esquimbreucq / Chemin Bercquet</desc>
<link href="https://chemins.be/ghoy/chemin/107"/><trkseg>
<trkpt lat="50.722235" lon="3.829675"><time>2026-05-02T22:43:25Z</time></trkpt>
<trkpt lat="50.723791" lon="3.833722"><time>2026-05-02T22:53:25Z</time></trkpt>
</trkseg></trk>
<trk>
<name>hlsgh107</name>
<cmt>v</cmt>
<desc>Ghoy Chemin n°107 Chemin d'Esquimbreucq / Chemin Bercquet</desc>
<link href="https://chemins.be/ghoy/chemin/107"/><trkseg>
<trkpt lat="50.723791" lon="3.833722"><time>2026-05-02T22:53:25Z</time></trkpt>
<trkpt lat="50.724311" lon="3.835444"><time>2026-05-02T23:03:25Z</time></trkpt>
</trkseg></trk>
<trk>
<name>hlsgh107</name>
<cmt>r</cmt>
<desc>Ghoy Chemin n°107 Chemin d'Esquimbreucq / Chemin Bercquet</desc>
<link href="https://chemins.be/ghoy/chemin/107"/><trkseg>
<trkpt lat="50.724311" lon="3.835444"><time>2026-05-02T23:03:25Z</time></trkpt>
<trkpt lat="50.724868" lon="3.837222"><time>2026-05-02T23:13:25Z</time></trkpt>
</trkseg>
</trk>
<trk>
<name>hlsgh11</name>
<cmt>r</cmt>
<desc>Ghoy Chemin n°11 Houtain</desc>
<link href="https://chemins.be/ghoy/chemin/11"/><trkseg>
<trkpt lat="50.728601" lon="3.809438"><time>2026-05-02T22:23:25Z</time></trkpt>
<trkpt lat="50.729174" lon="3.809434"><time>2026-05-02T22:33:25Z</time></trkpt>
</trkseg></trk>
<trk>
<name>hlsgh11</name>
<cmt>v</cmt>
<desc>Ghoy Chemin n°11 Houtain</desc>
<link href="https://chemins.be/ghoy/chemin/11"/><trkseg>
<trkpt lat="50.729174" lon="3.809434"><time>2026-05-02T22:33:25Z</time></trkpt>
<trkpt lat="50.729915" lon="3.808970"><time>2026-05-02T22:43:25Z</time></trkpt>
</trkseg></trk>
<trk>
<name>hlsgh11</name>
<cmt>r</cmt>
<desc>Ghoy Chemin n°11 Houtain</desc>
<link href="https://chemins.be/ghoy/chemin/11"/><trkseg>
<trkpt lat="50.729915" lon="3.808970"><time>2026-05-02T22:43:25Z</time></trkpt>
<trkpt lat="50.730964" lon="3.807959"><time>2026-05-02T22:53:25Z</time></trkpt>
</trkseg></trk>
<trk>
<name>hlsgh11</name>
<cmt>q</cmt>
<desc>Ghoy Chemin n°11 Houtain</desc>
<link href="https://chemins.be/ghoy/chemin/11"/><trkseg>
<trkpt lat="50.730964" lon="3.807959"><time>2026-05-02T22:53:25Z</time></trkpt>
<trkpt lat="50.732568" lon="3.805842"><time>2026-05-02T23:03:25Z</time></trkpt>
</trkseg></trk>
<trk>
<name>hlsgh11</name>
<cmt>v</cmt>
<desc>Ghoy Chemin n°11 Houtain</desc>
<link href="https://chemins.be/ghoy/chemin/11"/><trkseg>
<trkpt lat="50.732568" lon="3.805842"><time>2026-05-02T23:03:25Z</time></trkpt>
<trkpt lat="50.732952" lon="3.805290"><time>2026-05-02T23:13:25Z</time></trkpt>
<trkpt lat="50.733425" lon="3.805161"><time>2026-05-02T23:23:25Z</time></trkpt>
<trkpt lat="50.734082" lon="3.804826"><time>2026-05-02T23:33:25Z</time></trkpt>
<trkpt lat="50.735685" lon="3.803024"><time>2026-05-02T23:43:25Z</time></trkpt>
</trkseg>
</trk>
<trk>
<name>hlsgh12</name>
<cmt>v</cmt>
<desc>Ghoy Chemin n°12 Longpontstraat</desc>
<link href="https://chemins.be/ghoy/chemin/12"/><trkseg>
<trkpt lat="50.744668" lon="3.818792"><time>2026-05-02T22:23:25Z</time></trkpt>
<trkpt lat="50.744794" lon="3.820717"><time>2026-05-02T22:33:25Z</time></trkpt>
<trkpt lat="50.744448" lon="3.823512"><time>2026-05-02T22:43:25Z</time></trkpt>
<trkpt lat="50.743493" lon="3.826924"><time>2026-05-02T22:53:25Z</time></trkpt>
<trkpt lat="50.743030" lon="3.828006"><time>2026-05-02T23:03:25Z</time></trkpt>
<trkpt lat="50.742537" lon="3.828337"><time>2026-05-02T23:13:25Z</time></trkpt>
<trkpt lat="50.742531" lon="3.828819"><time>2026-05-02T23:23:25Z</time></trkpt>
<trkpt lat="50.742261" lon="3.828950"><time>2026-05-02T23:33:25Z</time></trkpt>
</trkseg>
</trk>
<trk>
<name>hlsgh15</name>
<cmt>v</cmt>
<desc>Ghoy Chemin n°15 </desc>
<link href="https://chemins.be/ghoy/chemin/15"/><trkseg>
<trkpt lat="50.724952" lon="3.809950"><time>2026-05-02T22:23:25Z</time></trkpt>
<trkpt lat="50.724729" lon="3.809530"><time>2026-05-02T22:33:25Z</time></trkpt>
<trkpt lat="50.724543" lon="3.808005"><time>2026-05-02T22:43:25Z</time></trkpt>
<trkpt lat="50.722326" lon="3.804229"><time>2026-05-02T22:53:25Z</time></trkpt>
<trkpt lat="50.721065" lon="3.799508"><time>2026-05-02T23:03:25Z</time></trkpt>
<trkpt lat="50.720902" lon="3.796761"><time>2026-05-02T23:13:25Z</time></trkpt>
<trkpt lat="50.721120" lon="3.796229"><time>2026-05-02T23:23:25Z</time></trkpt>
<trkpt lat="50.721196" lon="3.794478"><time>2026-05-02T23:33:25Z</time></trkpt>
<trkpt lat="50.720937" lon="3.793823"><time>2026-05-02T23:43:25Z</time></trkpt>
<trkpt lat="50.721002" lon="3.793084"><time>2026-05-02T23:53:25Z</time></trkpt>
</trkseg>
</trk>
<trk>
<name>hlsgh16</name>
<cmt>v</cmt>
<desc>Ghoy Sentier n°16 </desc>
<link href="https://chemins.be/ghoy/sentier/16"/><trkseg>
<trkpt lat="50.720861" lon="3.816244"><time>2026-05-02T22:23:25Z</time></trkpt>
<trkpt lat="50.721098" lon="3.815691"><time>2026-05-02T22:33:25Z</time></trkpt>
<trkpt lat="50.721869" lon="3.814455"><time>2026-05-02T22:43:25Z</time></trkpt>
<trkpt lat="50.722728" lon="3.813317"><time>2026-05-02T22:53:25Z</time></trkpt>
</trkseg>
</trk>
<trk>
<name>hlsgh17</name>
<cmt>v</cmt>
<desc>Ghoy Chemin n°17 </desc>
<link href="https://chemins.be/ghoy/chemin/17"/><trkseg>
<trkpt lat="50.727755" lon="3.811785"><time>2026-05-02T22:23:25Z</time></trkpt>
<trkpt lat="50.727717" lon="3.812004"><time>2026-05-02T22:33:25Z</time></trkpt>
<trkpt lat="50.726650" lon="3.812133"><time>2026-05-02T22:43:25Z</time></trkpt>
</trkseg>
</trk>
<trk>
<name>hlsgh21</name>
<cmt>v</cmt>
<desc>Ghoy Chemin n°21 </desc>
<link href="https://chemins.be/ghoy/chemin/21"/><trkseg>
<trkpt lat="50.734552" lon="3.813417"><time>2026-05-02T22:23:25Z</time></trkpt>
<trkpt lat="50.735053" lon="3.815057"><time>2026-05-02T22:33:25Z</time></trkpt>
<trkpt lat="50.735369" lon="3.816514"><time>2026-05-02T22:43:25Z</time></trkpt>
<trkpt lat="50.737010" lon="3.820509"><time>2026-05-02T22:53:25Z</time></trkpt>
<trkpt lat="50.737219" lon="3.821808"><time>2026-05-02T23:03:25Z</time></trkpt>
<trkpt lat="50.737122" lon="3.822235"><time>2026-05-02T23:13:25Z</time></trkpt>
</trkseg>
</trk>
<trk>
<name>hlsgh22</name>
<cmt>v</cmt>
<desc>Ghoy Chemin n°22 </desc>
<link href="https://chemins.be/ghoy/chemin/22"/><trkseg>
<trkpt lat="50.739790" lon="3.805261"><time>2026-05-02T22:23:25Z</time></trkpt>
<trkpt lat="50.741066" lon="3.804681"><time>2026-05-02T22:33:25Z</time></trkpt>
<trkpt lat="50.743184" lon="3.806148"><time>2026-05-02T22:43:25Z</time></trkpt>
<trkpt lat="50.744299" lon="3.806941"><time>2026-05-02T22:53:25Z</time></trkpt>
</trkseg></trk>
<trk>
<name>hlsgh22</name>
<cmt>q</cmt>
<desc>Ghoy Chemin n°22 </desc>
<link href="https://chemins.be/ghoy/chemin/22"/><trkseg>
<trkpt lat="50.744299" lon="3.806941"><time>2026-05-02T22:53:25Z</time></trkpt>
<trkpt lat="50.746547" lon="3.807371"><time>2026-05-02T23:03:25Z</time></trkpt>
<trkpt lat="50.747090" lon="3.805876"><time>2026-05-02T23:13:25Z</time></trkpt>
</trkseg></trk>
<trk>
<name>hlsgh22</name>
<cmt>v</cmt>
<desc>Ghoy Chemin n°22 </desc>
<link href="https://chemins.be/ghoy/chemin/22"/><trkseg>
<trkpt lat="50.747090" lon="3.805876"><time>2026-05-02T23:13:25Z</time></trkpt>
<trkpt lat="50.748798" lon="3.804604"><time>2026-05-02T23:23:25Z</time></trkpt>
<trkpt lat="50.749361" lon="3.804180"><time>2026-05-02T23:33:25Z</time></trkpt>
<trkpt lat="50.749667" lon="3.803928"><time>2026-05-02T23:43:25Z</time></trkpt>
<trkpt lat="50.749911" lon="3.803718"><time>2026-05-02T23:53:25Z</time></trkpt>
<trkpt lat="50.750107" lon="3.803729"><time>2026-05-03T00:03:25Z</time></trkpt>
</trkseg>
</trk>
<trk>
<name>hlsgh23</name>
<cmt>q</cmt>
<desc>Ghoy Chemin n°23 </desc>
<link href="https://chemins.be/ghoy/chemin/23"/><trkseg>
<trkpt lat="50.741224" lon="3.810211"><time>2026-05-02T22:23:25Z</time></trkpt>
<trkpt lat="50.741621" lon="3.808516"><time>2026-05-02T22:33:25Z</time></trkpt>
</trkseg></trk>
<trk>
<name>hlsgh23</name>
<cmt>v</cmt>
<desc>Ghoy Chemin n°23 </desc>
<link href="https://chemins.be/ghoy/chemin/23"/><trkseg>
<trkpt lat="50.741621" lon="3.808516"><time>2026-05-02T22:33:25Z</time></trkpt>
<trkpt lat="50.741571" lon="3.807511"><time>2026-05-02T22:43:25Z</time></trkpt>
<trkpt lat="50.742292" lon="3.807179"><time>2026-05-02T22:53:25Z</time></trkpt>
<trkpt lat="50.743180" lon="3.806149"><time>2026-05-02T23:03:25Z</time></trkpt>
<trkpt lat="50.743419" lon="3.805849"><time>2026-05-02T23:13:25Z</time></trkpt>
<trkpt lat="50.744545" lon="3.802906"><time>2026-05-02T23:23:25Z</time></trkpt>
<trkpt lat="50.744928" lon="3.802187"><time>2026-05-02T23:33:25Z</time></trkpt>
</trkseg></trk>
<trk>
<name>hlsgh23</name>
<cmt>q</cmt>
<desc>Ghoy Chemin n°23 </desc>
<link href="https://chemins.be/ghoy/chemin/23"/><trkseg>
<trkpt lat="50.744928" lon="3.802187"><time>2026-05-02T23:33:25Z</time></trkpt>
<trkpt lat="50.745139" lon="3.802058"><time>2026-05-02T23:43:25Z</time></trkpt>
<trkpt lat="50.745669" lon="3.800613"><time>2026-05-02T23:53:25Z</time></trkpt>
<trkpt lat="50.746221" lon="3.800570"><time>2026-05-03T00:03:25Z</time></trkpt>
<trkpt lat="50.747529" lon="3.798460"><time>2026-05-03T00:13:25Z</time></trkpt>
<trkpt lat="50.749498" lon="3.795971"><time>2026-05-03T00:23:25Z</time></trkpt>
</trkseg>
</trk>
<trk>
<name>hlsgh24</name>
<cmt>v</cmt>
<desc>Ghoy Chemin n°24 </desc>
<link href="https://chemins.be/ghoy/chemin/24"/><trkseg>
<trkpt lat="50.740903" lon="3.777405"><time>2026-05-02T22:23:25Z</time></trkpt>
<trkpt lat="50.740973" lon="3.777715"><time>2026-05-02T22:33:25Z</time></trkpt>
<trkpt lat="50.741043" lon="3.777975"><time>2026-05-02T22:43:25Z</time></trkpt>
<trkpt lat="50.741073" lon="3.778095"><time>2026-05-02T22:53:25Z</time></trkpt>
<trkpt lat="50.741103" lon="3.778185"><time>2026-05-02T23:03:25Z</time></trkpt>
<trkpt lat="50.741123" lon="3.778245"><time>2026-05-02T23:13:25Z</time></trkpt>
<trkpt lat="50.741153" lon="3.778285"><time>2026-05-02T23:23:25Z</time></trkpt>
<trkpt lat="50.741553" lon="3.778555"><time>2026-05-02T23:33:25Z</time></trkpt>
<trkpt lat="50.741743" lon="3.778675"><time>2026-05-02T23:43:25Z</time></trkpt>
<trkpt lat="50.741873" lon="3.778775"><time>2026-05-02T23:53:25Z</time></trkpt>
<trkpt lat="50.742203" lon="3.778995"><time>2026-05-03T00:03:25Z</time></trkpt>
<trkpt lat="50.742413" lon="3.779105"><time>2026-05-03T00:13:25Z</time></trkpt>
<trkpt lat="50.742493" lon="3.779165"><time>2026-05-03T00:23:25Z</time></trkpt>
<trkpt lat="50.742674" lon="3.779305"><time>2026-05-03T00:33:25Z</time></trkpt>
<trkpt lat="50.742834" lon="3.779445"><time>2026-05-03T00:43:25Z</time></trkpt>
<trkpt lat="50.743164" lon="3.779735"><time>2026-05-03T00:53:25Z</time></trkpt>
<trkpt lat="50.743391" lon="3.779910"><time>2026-05-03T01:03:25Z</time></trkpt>
<trkpt lat="50.744066" lon="3.780677"><time>2026-05-03T01:13:25Z</time></trkpt>
<trkpt lat="50.745993" lon="3.782473"><time>2026-05-03T01:23:25Z</time></trkpt>
<trkpt lat="50.747455" lon="3.785468"><time>2026-05-03T01:33:25Z</time></trkpt>
<trkpt lat="50.747921" lon="3.786235"><time>2026-05-03T01:43:25Z</time></trkpt>
</trkseg>
</trk>
<trk>
<name>hlsgh27</name>
<cmt>v</cmt>
<desc>Ghoy Chemin n°27 </desc>
<link href="https://chemins.be/ghoy/chemin/27"/><trkseg>
<trkpt lat="50.735934" lon="3.786438"><time>2026-05-02T22:23:25Z</time></trkpt>
<trkpt lat="50.735787" lon="3.786358"><time>2026-05-02T22:33:25Z</time></trkpt>
</trkseg></trk>
<trk>
<name>hlsgh27</name>
<cmt>q</cmt>
<desc>Ghoy Chemin n°27 </desc>
<link href="https://chemins.be/ghoy/chemin/27"/><trkseg>
<trkpt lat="50.735787" lon="3.786358"><time>2026-05-02T22:33:25Z</time></trkpt>
<trkpt lat="50.735300" lon="3.786241"><time>2026-05-02T22:43:25Z</time></trkpt>
</trkseg>
</trk>
<trk>
<name>hlsgh28</name>
<cmt>v</cmt>
<desc>Ghoy Chemin n°28 </desc>
<link href="https://chemins.be/ghoy/chemin/28"/><trkseg>
<trkpt lat="50.735457" lon="3.790321"><time>2026-05-02T22:23:25Z</time></trkpt>
<trkpt lat="50.736068" lon="3.790766"><time>2026-05-02T22:33:25Z</time></trkpt>
<trkpt lat="50.736693" lon="3.790991"><time>2026-05-02T22:43:25Z</time></trkpt>
<trkpt lat="50.737352" lon="3.790970"><time>2026-05-02T22:53:25Z</time></trkpt>
</trkseg>
</trk>
<trk>
<name>hlsgh29</name>
<cmt>v</cmt>
<desc>Ghoy Sentier n°29 </desc>
<link href="https://chemins.be/ghoy/sentier/29"/><trkseg>
<trkpt lat="50.735006" lon="3.797024"><time>2026-05-02T22:23:25Z</time></trkpt>
<trkpt lat="50.735180" lon="3.798226"><time>2026-05-02T22:33:25Z</time></trkpt>
<trkpt lat="50.735620" lon="3.802723"><time>2026-05-02T22:43:25Z</time></trkpt>
<trkpt lat="50.735696" lon="3.803058"><time>2026-05-02T22:53:25Z</time></trkpt>
</trkseg>
</trk>
<trk>
<name>hlsgh30</name>
<cmt>v</cmt>
<desc>Ghoy Chemin n°30 </desc>
<link href="https://chemins.be/ghoy/chemin/30"/><trkseg>
<trkpt lat="50.734553" lon="3.810786"><time>2026-05-02T22:23:25Z</time></trkpt>
<trkpt lat="50.734512" lon="3.810405"><time>2026-05-02T22:33:25Z</time></trkpt>
<trkpt lat="50.734977" lon="3.809545"><time>2026-05-02T22:43:25Z</time></trkpt>
<trkpt lat="50.735907" lon="3.808470"><time>2026-05-02T22:53:25Z</time></trkpt>
<trkpt lat="50.736107" lon="3.808186"><time>2026-05-02T23:03:25Z</time></trkpt>
<trkpt lat="50.737322" lon="3.806945"><time>2026-05-02T23:13:25Z</time></trkpt>
<trkpt lat="50.737672" lon="3.806757"><time>2026-05-02T23:23:25Z</time></trkpt>
<trkpt lat="50.738320" lon="3.806870"><time>2026-05-02T23:33:25Z</time></trkpt>
</trkseg>
</trk>
<trk>
<name>hlsgh31</name>
<cmt>v</cmt>
<desc>Ghoy Sentier n°31 </desc>
<link href="https://chemins.be/ghoy/sentier/31"/><trkseg>
<trkpt lat="50.734513" lon="3.813446"><time>2026-05-02T22:23:25Z</time></trkpt>
<trkpt lat="50.735550" lon="3.812892"><time>2026-05-02T22:33:25Z</time></trkpt>
</trkseg></trk>
<trk>
<name>hlsgh31</name>
<cmt>q</cmt>
<desc>Ghoy Sentier n°31 </desc>
<link href="https://chemins.be/ghoy/sentier/31"/><trkseg>
<trkpt lat="50.735550" lon="3.812892"><time>2026-05-02T22:33:25Z</time></trkpt>
<trkpt lat="50.735776" lon="3.812781"><time>2026-05-02T22:43:25Z</time></trkpt>
<trkpt lat="50.738559" lon="3.810561"><time>2026-05-02T22:53:25Z</time></trkpt>
</trkseg>
</trk>
<trk>
<name>hlsgh32</name>
<cmt>q</cmt>
<desc>Ghoy Sentier n°32 </desc>
<link href="https://chemins.be/ghoy/sentier/32"/><trkseg>
<trkpt lat="50.734911" lon="3.810750"><time>2026-05-02T22:23:25Z</time></trkpt>
<trkpt lat="50.736810" lon="3.811953"><time>2026-05-02T22:33:25Z</time></trkpt>
<trkpt lat="50.738730" lon="3.813169"><time>2026-05-02T22:43:25Z</time></trkpt>
</trkseg></trk>
<trk>
<name>hlsgh32</name>
<cmt>v</cmt>
<desc>Ghoy Sentier n°32 </desc>
<link href="https://chemins.be/ghoy/sentier/32"/><trkseg>
<trkpt lat="50.738730" lon="3.813169"><time>2026-05-02T22:43:25Z</time></trkpt>
<trkpt lat="50.739112" lon="3.813411"><time>2026-05-02T22:53:25Z</time></trkpt>
</trkseg>
</trk>
<trk>
<name>hlsgh33</name>
<cmt>v</cmt>
<desc>Ghoy Sentier n°33 </desc>
<link href="https://chemins.be/ghoy/sentier/33"/><trkseg>
<trkpt lat="50.728233" lon="3.822237"><time>2026-05-02T22:23:25Z</time></trkpt>
<trkpt lat="50.728223" lon="3.822157"><time>2026-05-02T22:33:25Z</time></trkpt>
<trkpt lat="50.728233" lon="3.822057"><time>2026-05-02T22:43:25Z</time></trkpt>
<trkpt lat="50.728903" lon="3.819717"><time>2026-05-02T22:53:25Z</time></trkpt>
<trkpt lat="50.728973" lon="3.819537"><time>2026-05-02T23:03:25Z</time></trkpt>
<trkpt lat="50.729993" lon="3.817617"><time>2026-05-02T23:13:25Z</time></trkpt>
<trkpt lat="50.730073" lon="3.817417"><time>2026-05-02T23:23:25Z</time></trkpt>
<trkpt lat="50.730157" lon="3.817240"><time>2026-05-02T23:33:25Z</time></trkpt>
<trkpt lat="50.730978" lon="3.816419"><time>2026-05-02T23:43:25Z</time></trkpt>
</trkseg>
</trk>
<trk>
<name>hlsgh34</name>
<cmt>v</cmt>
<desc>Ghoy Sentier n°34 Biercamp</desc>
<link href="https://chemins.be/ghoy/sentier/34"/><trkseg>
<trkpt lat="50.729720" lon="3.806663"><time>2026-05-02T22:23:25Z</time></trkpt>
<trkpt lat="50.729948" lon="3.806663"><time>2026-05-02T22:33:25Z</time></trkpt>
<trkpt lat="50.730558" lon="3.805378"><time>2026-05-02T22:43:25Z</time></trkpt>
</trkseg></trk>
<trk>
<name>hlsgh34</name>
<cmt>q</cmt>
<desc>Ghoy Sentier n°34 Biercamp</desc>
<link href="https://chemins.be/ghoy/sentier/34"/><trkseg>
<trkpt lat="50.730558" lon="3.805378"><time>2026-05-02T22:43:25Z</time></trkpt>
<trkpt lat="50.731491" lon="3.803410"><time>2026-05-02T22:53:25Z</time></trkpt>
<trkpt lat="50.731351" lon="3.802507"><time>2026-05-02T23:03:25Z</time></trkpt>
</trkseg>
</trk>
<trk>
<name>hlsgh35</name>
<cmt>r</cmt>
<desc>Ghoy Sentier n°35 </desc>
<link href="https://chemins.be/ghoy/sentier/35"/><trkseg>
<trkpt lat="50.728571" lon="3.809418"><time>2026-05-02T22:23:25Z</time></trkpt>
<trkpt lat="50.728125" lon="3.807925"><time>2026-05-02T22:33:25Z</time></trkpt>
<trkpt lat="50.727653" lon="3.806328"><time>2026-05-02T22:43:25Z</time></trkpt>
<trkpt lat="50.728087" lon="3.803058"><time>2026-05-02T22:53:25Z</time></trkpt>
<trkpt lat="50.727821" lon="3.802294"><time>2026-05-02T23:03:25Z</time></trkpt>
</trkseg></trk>
<trk>
<name>hlsgh35</name>
<cmt>v</cmt>
<desc>Ghoy Sentier n°35 </desc>
<link href="https://chemins.be/ghoy/sentier/35"/><trkseg>
<trkpt lat="50.727821" lon="3.802294"><time>2026-05-02T23:03:25Z</time></trkpt>
<trkpt lat="50.728343" lon="3.801771"><time>2026-05-02T23:13:25Z</time></trkpt>
<trkpt lat="50.727935" lon="3.800672"><time>2026-05-02T23:23:25Z</time></trkpt>
<trkpt lat="50.727921" lon="3.799808"><time>2026-05-02T23:33:25Z</time></trkpt>
<trkpt lat="50.727786" lon="3.798408"><time>2026-05-02T23:43:25Z</time></trkpt>
</trkseg></trk>
<trk>
<name>hlsgh35</name>
<cmt>d</cmt>
<desc>Ghoy Sentier n°35 </desc>
<link href="https://chemins.be/ghoy/sentier/35"/><trkseg>
<trkpt lat="50.727786" lon="3.798408"><time>2026-05-02T23:43:25Z</time></trkpt>
<trkpt lat="50.727770" lon="3.797911"><time>2026-05-02T23:53:25Z</time></trkpt>
</trkseg></trk>
<trk>
<name>hlsgh35</name>
<cmt>q</cmt>
<desc>Ghoy Sentier n°35 </desc>
<link href="https://chemins.be/ghoy/sentier/35"/><trkseg>
<trkpt lat="50.727770" lon="3.797911"><time>2026-05-02T23:53:25Z</time></trkpt>
<trkpt lat="50.728810" lon="3.794054"><time>2026-05-03T00:03:25Z</time></trkpt>
<trkpt lat="50.729163" lon="3.793222"><time>2026-05-03T00:13:25Z</time></trkpt>
<trkpt lat="50.729657" lon="3.792200"><time>2026-05-03T00:23:25Z</time></trkpt>
<trkpt lat="50.731217" lon="3.788905"><time>2026-05-03T00:33:25Z</time></trkpt>
<trkpt lat="50.731390" lon="3.788029"><time>2026-05-03T00:43:25Z</time></trkpt>
</trkseg>
</trk>
<trk>
<name>hlsgh36</name>
<cmt>v</cmt>
<desc>Ghoy Sentier n°36 </desc>
<link href="https://chemins.be/ghoy/sentier/36"/><trkseg>
<trkpt lat="50.733496" lon="3.798580"><time>2026-05-02T22:23:25Z</time></trkpt>
<trkpt lat="50.732888" lon="3.795485"><time>2026-05-02T22:33:25Z</time></trkpt>
<trkpt lat="50.731982" lon="3.795935"><time>2026-05-02T22:43:25Z</time></trkpt>
<trkpt lat="50.731406" lon="3.795772"><time>2026-05-02T22:53:25Z</time></trkpt>
<trkpt lat="50.730826" lon="3.794802"><time>2026-05-02T23:03:25Z</time></trkpt>
<trkpt lat="50.730524" lon="3.793842"><time>2026-05-02T23:13:25Z</time></trkpt>
<trkpt lat="50.730347" lon="3.792626"><time>2026-05-02T23:23:25Z</time></trkpt>
<trkpt lat="50.729188" lon="3.792626"><time>2026-05-02T23:33:25Z</time></trkpt>
</trkseg>
</trk>
<trk>
<name>hlsgh37</name>
<cmt>v</cmt>
<desc>Ghoy Sentier n°37 </desc>
<link href="https://chemins.be/ghoy/sentier/37"/><trkseg>
<trkpt lat="50.725812" lon="3.809335"><time>2026-05-02T22:23:25Z</time></trkpt>
<trkpt lat="50.725540" lon="3.807588"><time>2026-05-02T22:33:25Z</time></trkpt>
<trkpt lat="50.725616" lon="3.804958"><time>2026-05-02T22:43:25Z</time></trkpt>
</trkseg></trk>
<trk>
<name>hlsgh37</name>
<cmt>d</cmt>
<desc>Ghoy Sentier n°37 </desc>
<link href="https://chemins.be/ghoy/sentier/37"/><trkseg>
<trkpt lat="50.725616" lon="3.804958"><time>2026-05-02T22:43:25Z</time></trkpt>
<trkpt lat="50.725836" lon="3.802683"><time>2026-05-02T22:53:25Z</time></trkpt>
</trkseg></trk>
<trk>
<name>hlsgh37</name>
<cmt>v</cmt>
<desc>Ghoy Sentier n°37 </desc>
<link href="https://chemins.be/ghoy/sentier/37"/><trkseg>
<trkpt lat="50.725836" lon="3.802683"><time>2026-05-02T22:53:25Z</time></trkpt>
<trkpt lat="50.726436" lon="3.799865"><time>2026-05-02T23:03:25Z</time></trkpt>
<trkpt lat="50.726685" lon="3.799633"><time>2026-05-02T23:13:25Z</time></trkpt>
<trkpt lat="50.726588" lon="3.799324"><time>2026-05-02T23:23:25Z</time></trkpt>
</trkseg></trk>
<trk>
<name>hlsgh37</name>
<cmt>q</cmt>
<desc>Ghoy Sentier n°37 </desc>
<link href="https://chemins.be/ghoy/sentier/37"/><trkseg>
<trkpt lat="50.726588" lon="3.799324"><time>2026-05-02T23:23:25Z</time></trkpt>
<trkpt lat="50.727137" lon="3.798520"><time>2026-05-02T23:33:25Z</time></trkpt>
<trkpt lat="50.727102" lon="3.798404"><time>2026-05-02T23:43:25Z</time></trkpt>
<trkpt lat="50.727746" lon="3.797924"><time>2026-05-02T23:53:25Z</time></trkpt>
</trkseg>
</trk>
<trk>
<name>hlsgh38</name>
<cmt>v</cmt>
<desc>Ghoy Sentier n°38 </desc>
<link href="https://chemins.be/ghoy/sentier/38"/><trkseg>
<trkpt lat="50.724028" lon="3.825369"><time>2026-05-02T22:23:25Z</time></trkpt>
<trkpt lat="50.724269" lon="3.824148"><time>2026-05-02T22:33:25Z</time></trkpt>
<trkpt lat="50.726213" lon="3.816977"><time>2026-05-02T22:43:25Z</time></trkpt>
<trkpt lat="50.726237" lon="3.816290"><time>2026-05-02T22:53:25Z</time></trkpt>
<trkpt lat="50.725539" lon="3.814321"><time>2026-05-02T23:03:25Z</time></trkpt>
</trkseg>
</trk>
<trk>
<name>hlsgh39</name>
<cmt>v</cmt>
<desc>Ghoy Sentier n°39 </desc>
<link href="https://chemins.be/ghoy/sentier/39"/><trkseg>
<trkpt lat="50.722530" lon="3.827099"><time>2026-05-02T22:23:25Z</time></trkpt>
<trkpt lat="50.721803" lon="3.824964"><time>2026-05-02T22:33:25Z</time></trkpt>
<trkpt lat="50.721742" lon="3.823902"><time>2026-05-02T22:43:25Z</time></trkpt>
<trkpt lat="50.721078" lon="3.821667"><time>2026-05-02T22:53:25Z</time></trkpt>
</trkseg></trk>
<trk>
<name>hlsgh39</name>
<cmt>q</cmt>
<desc>Ghoy Sentier n°39 </desc>
<link href="https://chemins.be/ghoy/sentier/39"/><trkseg>
<trkpt lat="50.721078" lon="3.821667"><time>2026-05-02T22:53:25Z</time></trkpt>
<trkpt lat="50.720771" lon="3.820630"><time>2026-05-02T23:03:25Z</time></trkpt>
</trkseg></trk>
<trk>
<name>hlsgh39</name>
<cmt>v</cmt>
<desc>Ghoy Sentier n°39 </desc>
<link href="https://chemins.be/ghoy/sentier/39"/><trkseg>
<trkpt lat="50.720771" lon="3.820630"><time>2026-05-02T23:03:25Z</time></trkpt>
<trkpt lat="50.720166" lon="3.818098"><time>2026-05-02T23:13:25Z</time></trkpt>
<trkpt lat="50.719874" lon="3.817390"><time>2026-05-02T23:23:25Z</time></trkpt>
<trkpt lat="50.719881" lon="3.816778"><time>2026-05-02T23:33:25Z</time></trkpt>
</trkseg></trk>
<trk>
<name>hlsgh39</name>
<cmt>q</cmt>
<desc>Ghoy Sentier n°39 </desc>
<link href="https://chemins.be/ghoy/sentier/39"/><trkseg>
<trkpt lat="50.719881" lon="3.816778"><time>2026-05-02T23:33:25Z</time></trkpt>
<trkpt lat="50.719596" lon="3.816295"><time>2026-05-02T23:43:25Z</time></trkpt>
</trkseg>
</trk>
<trk>
<name>hlsgh4</name>
<cmt>r</cmt>
<desc>Ghoy Chemin n°4 Biercamp</desc>
<link href="https://chemins.be/ghoy/chemin/4"/><trkseg>
<trkpt lat="50.730273" lon="3.803134"><time>2026-05-02T22:23:25Z</time></trkpt>
<trkpt lat="50.731273" lon="3.802486"><time>2026-05-02T22:33:25Z</time></trkpt>
</trkseg></trk>
<trk>
<name>hlsgh4</name>
<cmt>v</cmt>
<desc>Ghoy Chemin n°4 Biercamp</desc>
<link href="https://chemins.be/ghoy/chemin/4"/><trkseg>
<trkpt lat="50.731273" lon="3.802486"><time>2026-05-02T22:33:25Z</time></trkpt>
<trkpt lat="50.731906" lon="3.802224"><time>2026-05-02T22:43:25Z</time></trkpt>
</trkseg></trk>
<trk>
<name>hlsgh4</name>
<cmt>q</cmt>
<desc>Ghoy Chemin n°4 Biercamp</desc>
<link href="https://chemins.be/ghoy/chemin/4"/><trkseg>
<trkpt lat="50.731906" lon="3.802224"><time>2026-05-02T22:43:25Z</time></trkpt>
<trkpt lat="50.732118" lon="3.801250"><time>2026-05-02T22:53:25Z</time></trkpt>
</trkseg>
</trk>
<trk>
<name>hlsgh40</name>
<cmt>q</cmt>
<desc>Ghoy Sentier n°40 </desc>
<link href="https://chemins.be/ghoy/sentier/40"/><trkseg>
<trkpt lat="50.742904" lon="3.820588"><time>2026-05-02T22:23:25Z</time></trkpt>
<trkpt lat="50.743631" lon="3.822876"><time>2026-05-02T22:33:25Z</time></trkpt>
</trkseg>
</trk>
<trk>
<name>hlsgh41</name>
<cmt>q</cmt>
<desc>Ghoy Sentier n°41 </desc>
<link href="https://chemins.be/ghoy/sentier/41"/><trkseg>
<trkpt lat="50.736494" lon="3.802845"><time>2026-05-02T22:23:25Z</time></trkpt>
<trkpt lat="50.736702" lon="3.804408"><time>2026-05-02T22:33:25Z</time></trkpt>
<trkpt lat="50.737151" lon="3.805962"><time>2026-05-02T22:43:25Z</time></trkpt>
<trkpt lat="50.737775" lon="3.809357"><time>2026-05-02T22:53:25Z</time></trkpt>
<trkpt lat="50.739205" lon="3.813384"><time>2026-05-02T23:03:25Z</time></trkpt>
<trkpt lat="50.740015" lon="3.815408"><time>2026-05-02T23:13:25Z</time></trkpt>
<trkpt lat="50.740654" lon="3.815723"><time>2026-05-02T23:23:25Z</time></trkpt>
<trkpt lat="50.741586" lon="3.818026"><time>2026-05-02T23:33:25Z</time></trkpt>
<trkpt lat="50.742142" lon="3.818227"><time>2026-05-02T23:43:25Z</time></trkpt>
<trkpt lat="50.742796" lon="3.819340"><time>2026-05-02T23:53:25Z</time></trkpt>
<trkpt lat="50.743221" lon="3.819640"><time>2026-05-03T00:03:25Z</time></trkpt>
<trkpt lat="50.743427" lon="3.820033"><time>2026-05-03T00:13:25Z</time></trkpt>
<trkpt lat="50.744282" lon="3.823359"><time>2026-05-03T00:23:25Z</time></trkpt>
</trkseg>
</trk>
<trk>
<name>hlsgh42</name>
<cmt>q</cmt>
<desc>Ghoy Sentier n°42 </desc>
<link href="https://chemins.be/ghoy/sentier/42"/><trkseg>
<trkpt lat="50.741870" lon="3.814520"><time>2026-05-02T22:23:25Z</time></trkpt>
<trkpt lat="50.741136" lon="3.815056"><time>2026-05-02T22:33:25Z</time></trkpt>
<trkpt lat="50.741211" lon="3.815271"><time>2026-05-02T22:43:25Z</time></trkpt>
<trkpt lat="50.740675" lon="3.815721"><time>2026-05-02T22:53:25Z</time></trkpt>
</trkseg>
</trk>
<trk>
<name>hlsgh43</name>
<cmt>q</cmt>
<desc>Ghoy Sentier n°43 </desc>
<link href="https://chemins.be/ghoy/sentier/43"/><trkseg>
<trkpt lat="50.743486" lon="3.826843"><time>2026-05-02T22:23:25Z</time></trkpt>
<trkpt lat="50.742491" lon="3.823391"><time>2026-05-02T22:33:25Z</time></trkpt>
<trkpt lat="50.741837" lon="3.821136"><time>2026-05-02T22:43:25Z</time></trkpt>
<trkpt lat="50.740678" lon="3.818933"><time>2026-05-02T22:53:25Z</time></trkpt>
<trkpt lat="50.739981" lon="3.815314"><time>2026-05-02T23:03:25Z</time></trkpt>
</trkseg>
</trk>
<trk>
<name>hlsgh44</name>
<cmt>q</cmt>
<desc>Ghoy Sentier n°44 </desc>
<link href="https://chemins.be/ghoy/sentier/44"/><trkseg>
<trkpt lat="50.742219" lon="3.829013"><time>2026-05-02T22:23:25Z</time></trkpt>
<trkpt lat="50.741633" lon="3.829417"><time>2026-05-02T22:33:25Z</time></trkpt>
<trkpt lat="50.741698" lon="3.829588"><time>2026-05-02T22:43:25Z</time></trkpt>
<trkpt lat="50.741404" lon="3.829859"><time>2026-05-02T22:53:25Z</time></trkpt>
<trkpt lat="50.741073" lon="3.830163"><time>2026-05-02T23:03:25Z</time></trkpt>
<trkpt lat="50.739580" lon="3.833090"><time>2026-05-02T23:13:25Z</time></trkpt>
<trkpt lat="50.739150" lon="3.833511"><time>2026-05-02T23:23:25Z</time></trkpt>
</trkseg>
</trk>
<trk>
<name>hlsgh44bis</name>
<cmt>q</cmt>
<desc>Ghoy Sentier n°44bis </desc>
<link href="https://chemins.be/ghoy/sentier/44bis"/><trkseg>
<trkpt lat="50.741428" lon="3.827484"><time>2026-05-02T22:23:25Z</time></trkpt>
<trkpt lat="50.741423" lon="3.828814"><time>2026-05-02T22:33:25Z</time></trkpt>
<trkpt lat="50.741610" lon="3.829419"><time>2026-05-02T22:43:25Z</time></trkpt>
</trkseg>
</trk>
<trk>
<name>hlsgh46</name>
<cmt>r</cmt>
<desc>Ghoy Sentier n°46 Rue Monpassage</desc>
<link href="https://chemins.be/ghoy/sentier/46"/><trkseg>
<trkpt lat="50.740858" lon="3.821493"><time>2026-05-02T22:23:25Z</time></trkpt>
<trkpt lat="50.738746" lon="3.822834"><time>2026-05-02T22:33:25Z</time></trkpt>
<trkpt lat="50.738027" lon="3.823113"><time>2026-05-02T22:43:25Z</time></trkpt>
</trkseg>
</trk>
<trk>
<name>hlsgh47</name>
<cmt>q</cmt>
<desc>Ghoy Sentier n°47 </desc>
<link href="https://chemins.be/ghoy/sentier/47"/><trkseg>
<trkpt lat="50.736797" lon="3.822024"><time>2026-05-02T22:23:25Z</time></trkpt>
<trkpt lat="50.736014" lon="3.822840"><time>2026-05-02T22:33:25Z</time></trkpt>
<trkpt lat="50.735158" lon="3.823183"><time>2026-05-02T22:43:25Z</time></trkpt>
</trkseg>
</trk>
<trk>
<name>hlsgh48</name>
<cmt>r</cmt>
<desc>Ghoy Sentier n°48 </desc>
<link href="https://chemins.be/ghoy/sentier/48"/><trkseg>
<trkpt lat="50.728644" lon="3.810929"><time>2026-05-02T22:23:25Z</time></trkpt>
<trkpt lat="50.728847" lon="3.811486"><time>2026-05-02T22:33:25Z</time></trkpt>
<trkpt lat="50.728902" lon="3.811672"><time>2026-05-02T22:43:25Z</time></trkpt>
</trkseg></trk>
<trk>
<name>hlsgh48</name>
<cmt>v</cmt>
<desc>Ghoy Sentier n°48 </desc>
<link href="https://chemins.be/ghoy/sentier/48"/><trkseg>
<trkpt lat="50.728902" lon="3.811672"><time>2026-05-02T22:43:25Z</time></trkpt>
<trkpt lat="50.728822" lon="3.812148"><time>2026-05-02T22:53:25Z</time></trkpt>
</trkseg></trk>
<trk>
<name>hlsgh48</name>
<cmt>r</cmt>
<desc>Ghoy Sentier n°48 </desc>
<link href="https://chemins.be/ghoy/sentier/48"/><trkseg>
<trkpt lat="50.728822" lon="3.812148"><time>2026-05-02T22:53:25Z</time></trkpt>
<trkpt lat="50.728766" lon="3.812490"><time>2026-05-02T23:03:25Z</time></trkpt>
</trkseg></trk>
<trk>
<name>hlsgh48</name>
<cmt>q</cmt>
<desc>Ghoy Sentier n°48 </desc>
<link href="https://chemins.be/ghoy/sentier/48"/><trkseg>
<trkpt lat="50.728766" lon="3.812490"><time>2026-05-02T23:03:25Z</time></trkpt>
<trkpt lat="50.729231" lon="3.813650"><time>2026-05-02T23:13:25Z</time></trkpt>
<trkpt lat="50.732040" lon="3.815461"><time>2026-05-02T23:23:25Z</time></trkpt>
<trkpt lat="50.732789" lon="3.816799"><time>2026-05-02T23:33:25Z</time></trkpt>
<trkpt lat="50.733001" lon="3.816757"><time>2026-05-02T23:43:25Z</time></trkpt>
<trkpt lat="50.733045" lon="3.817280"><time>2026-05-02T23:53:25Z</time></trkpt>
</trkseg></trk>
<trk>
<name>hlsgh48</name>
<cmt>v</cmt>
<desc>Ghoy Sentier n°48 </desc>
<link href="https://chemins.be/ghoy/sentier/48"/><trkseg>
<trkpt lat="50.733045" lon="3.817280"><time>2026-05-02T23:53:25Z</time></trkpt>
<trkpt lat="50.733403" lon="3.817207"><time>2026-05-03T00:03:25Z</time></trkpt>
<trkpt lat="50.733743" lon="3.817137"><time>2026-05-03T00:13:25Z</time></trkpt>
<trkpt lat="50.734083" lon="3.817057"><time>2026-05-03T00:23:25Z</time></trkpt>
<trkpt lat="50.734153" lon="3.817037"><time>2026-05-03T00:33:25Z</time></trkpt>
<trkpt lat="50.734183" lon="3.817027"><time>2026-05-03T00:43:25Z</time></trkpt>
<trkpt lat="50.734203" lon="3.817047"><time>2026-05-03T00:53:25Z</time></trkpt>
<trkpt lat="50.734213" lon="3.817077"><time>2026-05-03T01:03:25Z</time></trkpt>
<trkpt lat="50.734223" lon="3.817127"><time>2026-05-03T01:13:25Z</time></trkpt>
<trkpt lat="50.734227" lon="3.817394"><time>2026-05-03T01:23:25Z</time></trkpt>
</trkseg></trk>
<trk>
<name>hlsgh48</name>
<cmt>d</cmt>
<desc>Ghoy Sentier n°48 </desc>
<link href="https://chemins.be/ghoy/sentier/48"/><trkseg>
<trkpt lat="50.734227" lon="3.817394"><time>2026-05-03T01:23:25Z</time></trkpt>
<trkpt lat="50.734207" lon="3.818252"><time>2026-05-03T01:33:25Z</time></trkpt>
<trkpt lat="50.735130" lon="3.819465"><time>2026-05-03T01:43:25Z</time></trkpt>
<trkpt lat="50.736061" lon="3.821353"><time>2026-05-03T01:53:25Z</time></trkpt>
</trkseg>
</trk>
<trk>
<name>hlsgh49</name>
<cmt>q</cmt>
<desc>Ghoy Sentier n°49 </desc>
<link href="https://chemins.be/ghoy/sentier/49"/><trkseg>
<trkpt lat="50.737231" lon="3.821797"><time>2026-05-02T22:23:25Z</time></trkpt>
<trkpt lat="50.737948" lon="3.819908"><time>2026-05-02T22:33:25Z</time></trkpt>
<trkpt lat="50.737898" lon="3.819468"><time>2026-05-02T22:43:25Z</time></trkpt>
<trkpt lat="50.738191" lon="3.819233"><time>2026-05-02T22:53:25Z</time></trkpt>
<trkpt lat="50.738833" lon="3.813782"><time>2026-05-02T23:03:25Z</time></trkpt>
<trkpt lat="50.739156" lon="3.813407"><time>2026-05-02T23:13:25Z</time></trkpt>
</trkseg>
</trk>
<trk>
<name>hlsgh50</name>
<cmt>q</cmt>
<desc>Ghoy Sentier n°50 </desc>
<link href="https://chemins.be/ghoy/sentier/50"/><trkseg>
<trkpt lat="50.744746" lon="3.821224"><time>2026-05-02T22:23:25Z</time></trkpt>
<trkpt lat="50.743955" lon="3.822007"><time>2026-05-02T22:33:25Z</time></trkpt>
<trkpt lat="50.743542" lon="3.822415"><time>2026-05-02T22:43:25Z</time></trkpt>
</trkseg>
</trk>
<trk>
<name>hlsgh51</name>
<cmt>q</cmt>
<desc>Ghoy Sentier n°51 </desc>
<link href="https://chemins.be/ghoy/sentier/51"/><trkseg>
<trkpt lat="50.750276" lon="3.809327"><time>2026-05-02T22:23:25Z</time></trkpt>
<trkpt lat="50.749455" lon="3.809456"><time>2026-05-02T22:33:25Z</time></trkpt>
<trkpt lat="50.748508" lon="3.810309"><time>2026-05-02T22:43:25Z</time></trkpt>
<trkpt lat="50.748009" lon="3.811001"><time>2026-05-02T22:53:25Z</time></trkpt>
<trkpt lat="50.746910" lon="3.812087"><time>2026-05-02T23:03:25Z</time></trkpt>
<trkpt lat="50.746095" lon="3.812715"><time>2026-05-02T23:13:25Z</time></trkpt>
<trkpt lat="50.745808" lon="3.812060"><time>2026-05-02T23:23:25Z</time></trkpt>
<trkpt lat="50.745295" lon="3.811449"><time>2026-05-02T23:33:25Z</time></trkpt>
<trkpt lat="50.742399" lon="3.813307"><time>2026-05-02T23:43:25Z</time></trkpt>
</trkseg>
</trk>
<trk>
<name>hlsgh53</name>
<cmt>q</cmt>
<desc>Ghoy Sentier n°53 </desc>
<link href="https://chemins.be/ghoy/sentier/53"/><trkseg>
<trkpt lat="50.742216" lon="3.818232"><time>2026-05-02T22:23:25Z</time></trkpt>
<trkpt lat="50.743092" lon="3.817792"><time>2026-05-02T22:33:25Z</time></trkpt>
<trkpt lat="50.743431" lon="3.817116"><time>2026-05-02T22:43:25Z</time></trkpt>
<trkpt lat="50.742368" lon="3.813329"><time>2026-05-02T22:53:25Z</time></trkpt>
<trkpt lat="50.741523" lon="3.807573"><time>2026-05-02T23:03:25Z</time></trkpt>
<trkpt lat="50.741256" lon="3.805749"><time>2026-05-02T23:13:25Z</time></trkpt>
<trkpt lat="50.741061" lon="3.804604"><time>2026-05-02T23:23:25Z</time></trkpt>
<trkpt lat="50.741097" lon="3.803882"><time>2026-05-02T23:33:25Z</time></trkpt>
<trkpt lat="50.741401" lon="3.802358"><time>2026-05-02T23:43:25Z</time></trkpt>
<trkpt lat="50.741478" lon="3.797287"><time>2026-05-02T23:53:25Z</time></trkpt>
</trkseg>
</trk>
<trk>
<name>hlsgh54</name>
<cmt>q</cmt>
<desc>Ghoy Sentier n°54 </desc>
<link href="https://chemins.be/ghoy/sentier/54"/><trkseg>
<trkpt lat="50.740170" lon="3.801084"><time>2026-05-02T22:23:25Z</time></trkpt>
<trkpt lat="50.741469" lon="3.799002"><time>2026-05-02T22:33:25Z</time></trkpt>
<trkpt lat="50.743242" lon="3.794932"><time>2026-05-02T22:43:25Z</time></trkpt>
<trkpt lat="50.743703" lon="3.793488"><time>2026-05-02T22:53:25Z</time></trkpt>
<trkpt lat="50.745185" lon="3.790920"><time>2026-05-02T23:03:25Z</time></trkpt>
<trkpt lat="50.746190" lon="3.789897"><time>2026-05-02T23:13:25Z</time></trkpt>
<trkpt lat="50.746598" lon="3.789632"><time>2026-05-02T23:23:25Z</time></trkpt>
<trkpt lat="50.746473" lon="3.789031"><time>2026-05-02T23:33:25Z</time></trkpt>
<trkpt lat="50.746941" lon="3.787408"><time>2026-05-02T23:43:25Z</time></trkpt>
</trkseg>
</trk>
<trk>
<name>hlsgh55</name>
<cmt>q</cmt>
<desc>Ghoy Sentier n°55 </desc>
<link href="https://chemins.be/ghoy/sentier/55"/><trkseg>
<trkpt lat="50.748367" lon="3.787880"><time>2026-05-02T22:23:25Z</time></trkpt>
<trkpt lat="50.748140" lon="3.788087"><time>2026-05-02T22:33:25Z</time></trkpt>
<trkpt lat="50.748217" lon="3.788295"><time>2026-05-02T22:43:25Z</time></trkpt>
<trkpt lat="50.747108" lon="3.789432"><time>2026-05-02T22:53:25Z</time></trkpt>
<trkpt lat="50.746602" lon="3.789654"><time>2026-05-02T23:03:25Z</time></trkpt>
</trkseg>
</trk>
<trk>
<name>hlsgh56</name>
<cmt>v</cmt>
<desc>Ghoy Sentier n°56 </desc>
<link href="https://chemins.be/ghoy/sentier/56"/><trkseg>
<trkpt lat="50.743343" lon="3.788304"><time>2026-05-02T22:23:25Z</time></trkpt>
<trkpt lat="50.744490" lon="3.786142"><time>2026-05-02T22:33:25Z</time></trkpt>
</trkseg></trk>
<trk>
<name>hlsgh56</name>
<cmt>q</cmt>
<desc>Ghoy Sentier n°56 </desc>
<link href="https://chemins.be/ghoy/sentier/56"/><trkseg>
<trkpt lat="50.744490" lon="3.786142"><time>2026-05-02T22:33:25Z</time></trkpt>
<trkpt lat="50.745257" lon="3.785021"><time>2026-05-02T22:43:25Z</time></trkpt>
<trkpt lat="50.746120" lon="3.784731"><time>2026-05-02T22:53:25Z</time></trkpt>
<trkpt lat="50.748353" lon="3.783562"><time>2026-05-02T23:03:25Z</time></trkpt>
</trkseg>
</trk>
<trk>
<name>hlsgh57</name>
<cmt>q</cmt>
<desc>Ghoy Sentier n°57 </desc>
<link href="https://chemins.be/ghoy/sentier/57"/><trkseg>
<trkpt lat="50.747445" lon="3.785497"><time>2026-05-02T22:23:25Z</time></trkpt>
<trkpt lat="50.746110" lon="3.784693"><time>2026-05-02T22:33:25Z</time></trkpt>
</trkseg>
</trk>
<trk>
<name>hlsgh58</name>
<cmt>q</cmt>
<desc>Ghoy Sentier n°58 </desc>
<link href="https://chemins.be/ghoy/sentier/58"/><trkseg>
<trkpt lat="50.743396" lon="3.776870"><time>2026-05-02T22:23:25Z</time></trkpt>
<trkpt lat="50.744379" lon="3.779202"><time>2026-05-02T22:33:25Z</time></trkpt>
<trkpt lat="50.745415" lon="3.780983"><time>2026-05-02T22:43:25Z</time></trkpt>
<trkpt lat="50.746044" lon="3.782428"><time>2026-05-02T22:53:25Z</time></trkpt>
</trkseg>
</trk>
<trk>
<name>hlsgh59</name>
<cmt>q</cmt>
<desc>Ghoy Sentier n°59 </desc>
<link href="https://chemins.be/ghoy/sentier/59"/><trkseg>
<trkpt lat="50.736099" lon="3.785969"><time>2026-05-02T22:23:25Z</time></trkpt>
<trkpt lat="50.736875" lon="3.786234"><time>2026-05-02T22:33:25Z</time></trkpt>
<trkpt lat="50.736880" lon="3.786309"><time>2026-05-02T22:43:25Z</time></trkpt>
<trkpt lat="50.739341" lon="3.786233"><time>2026-05-02T22:53:25Z</time></trkpt>
<trkpt lat="50.740536" lon="3.785239"><time>2026-05-02T23:03:25Z</time></trkpt>
<trkpt lat="50.742351" lon="3.783980"><time>2026-05-02T23:13:25Z</time></trkpt>
<trkpt lat="50.743591" lon="3.782056"><time>2026-05-02T23:23:25Z</time></trkpt>
<trkpt lat="50.744392" lon="3.779975"><time>2026-05-02T23:33:25Z</time></trkpt>
<trkpt lat="50.744401" lon="3.779259"><time>2026-05-02T23:43:25Z</time></trkpt>
</trkseg>
</trk>
<trk>
<name>hlsgh6</name>
<cmt>v</cmt>
<desc>Ghoy Chemin n°6 </desc>
<link href="https://chemins.be/ghoy/chemin/6"/><trkseg>
<trkpt lat="50.743107" lon="3.823174"><time>2026-05-02T22:23:25Z</time></trkpt>
<trkpt lat="50.743609" lon="3.822870"><time>2026-05-02T22:33:25Z</time></trkpt>
<trkpt lat="50.744421" lon="3.823470"><time>2026-05-02T22:43:25Z</time></trkpt>
</trkseg>
</trk>
<trk>
<name>hlsgh60</name>
<cmt>q</cmt>
<desc>Ghoy Sentier n°60 </desc>
<link href="https://chemins.be/ghoy/sentier/60"/><trkseg>
<trkpt lat="50.742630" lon="3.785925"><time>2026-05-02T22:23:25Z</time></trkpt>
<trkpt lat="50.742399" lon="3.784695"><time>2026-05-02T22:33:25Z</time></trkpt>
<trkpt lat="50.742204" lon="3.784037"><time>2026-05-02T22:43:25Z</time></trkpt>
</trkseg>
</trk>
<trk>
<name>hlsgh61</name>
<cmt>q</cmt>
<desc>Ghoy Sentier n°61 </desc>
<link href="https://chemins.be/ghoy/sentier/61"/><trkseg>
<trkpt lat="50.742621" lon="3.785947"><time>2026-05-02T22:23:25Z</time></trkpt>
<trkpt lat="50.743218" lon="3.785475"><time>2026-05-02T22:33:25Z</time></trkpt>
<trkpt lat="50.744870" lon="3.785568"><time>2026-05-02T22:43:25Z</time></trkpt>
</trkseg>
</trk>
<trk>
<name>hlsgh62</name>
<cmt>q</cmt>
<desc>Ghoy Sentier n°62 </desc>
<link href="https://chemins.be/ghoy/sentier/62"/><trkseg>
<trkpt lat="50.740198" lon="3.796857"><time>2026-05-02T22:23:25Z</time></trkpt>
<trkpt lat="50.740200" lon="3.795741"><time>2026-05-02T22:33:25Z</time></trkpt>
<trkpt lat="50.740514" lon="3.793976"><time>2026-05-02T22:43:25Z</time></trkpt>
<trkpt lat="50.740503" lon="3.791484"><time>2026-05-02T22:53:25Z</time></trkpt>
<trkpt lat="50.740477" lon="3.785278"><time>2026-05-02T23:03:25Z</time></trkpt>
<trkpt lat="50.740772" lon="3.783512"><time>2026-05-02T23:13:25Z</time></trkpt>
<trkpt lat="50.739006" lon="3.779706"><time>2026-05-02T23:23:25Z</time></trkpt>
</trkseg>
</trk>
<trk>
<name>hlsgh63</name>
<cmt>q</cmt>
<desc>Ghoy Sentier n°63 </desc>
<link href="https://chemins.be/ghoy/sentier/63"/><trkseg>
<trkpt lat="50.739025" lon="3.779022"><time>2026-05-02T22:23:25Z</time></trkpt>
<trkpt lat="50.738727" lon="3.778962"><time>2026-05-02T22:33:25Z</time></trkpt>
<trkpt lat="50.737829" lon="3.780221"><time>2026-05-02T22:43:25Z</time></trkpt>
<trkpt lat="50.736730" lon="3.781324"><time>2026-05-02T22:53:25Z</time></trkpt>
<trkpt lat="50.735869" lon="3.783524"><time>2026-05-02T23:03:25Z</time></trkpt>
</trkseg></trk>
<trk>
<name>hlsgh63</name>
<cmt>r</cmt>
<desc>Ghoy Sentier n°63 </desc>
<link href="https://chemins.be/ghoy/sentier/63"/><trkseg>
<trkpt lat="50.735869" lon="3.783524"><time>2026-05-02T23:03:25Z</time></trkpt>
<trkpt lat="50.735472" lon="3.783773"><time>2026-05-02T23:13:25Z</time></trkpt>
</trkseg></trk>
<trk>
<name>hlsgh63</name>
<cmt>q</cmt>
<desc>Ghoy Sentier n°63 </desc>
<link href="https://chemins.be/ghoy/sentier/63"/><trkseg>
<trkpt lat="50.735472" lon="3.783773"><time>2026-05-02T23:13:25Z</time></trkpt>
<trkpt lat="50.735296" lon="3.785272"><time>2026-05-02T23:23:25Z</time></trkpt>
<trkpt lat="50.735268" lon="3.786255"><time>2026-05-02T23:33:25Z</time></trkpt>
<trkpt lat="50.734453" lon="3.788901"><time>2026-05-02T23:43:25Z</time></trkpt>
<trkpt lat="50.733846" lon="3.789960"><time>2026-05-02T23:53:25Z</time></trkpt>
<trkpt lat="50.733584" lon="3.791197"><time>2026-05-03T00:03:25Z</time></trkpt>
<trkpt lat="50.733914" lon="3.793035"><time>2026-05-03T00:13:25Z</time></trkpt>
<trkpt lat="50.733855" lon="3.795474"><time>2026-05-03T00:23:25Z</time></trkpt>
<trkpt lat="50.734240" lon="3.797629"><time>2026-05-03T00:33:25Z</time></trkpt>
</trkseg>
</trk>
<trk>
<name>hlsgh64</name>
<cmt>q</cmt>
<desc>Ghoy Sentier n°64 </desc>
<link href="https://chemins.be/ghoy/sentier/64"/><trkseg>
<trkpt lat="50.738085" lon="3.781364"><time>2026-05-02T22:23:25Z</time></trkpt>
<trkpt lat="50.739995" lon="3.785019"><time>2026-05-02T22:33:25Z</time></trkpt>
</trkseg>
</trk>
<trk>
<name>hlsgh65</name>
<cmt>q</cmt>
<desc>Ghoy Sentier n°65 </desc>
<link href="https://chemins.be/ghoy/sentier/65"/><trkseg>
<trkpt lat="50.738250" lon="3.784157"><time>2026-05-02T22:23:25Z</time></trkpt>
<trkpt lat="50.738820" lon="3.786221"><time>2026-05-02T22:33:25Z</time></trkpt>
</trkseg>
</trk>
<trk>
<name>hlsgh66</name>
<cmt>q</cmt>
<desc>Ghoy Sentier n°66 </desc>
<link href="https://chemins.be/ghoy/sentier/66"/><trkseg>
<trkpt lat="50.736603" lon="3.788551"><time>2026-05-02T22:23:25Z</time></trkpt>
<trkpt lat="50.736655" lon="3.787314"><time>2026-05-02T22:33:25Z</time></trkpt>
<trkpt lat="50.736789" lon="3.787239"><time>2026-05-02T22:43:25Z</time></trkpt>
<trkpt lat="50.736889" lon="3.786338"><time>2026-05-02T22:53:25Z</time></trkpt>
</trkseg>
</trk>
<trk>
<name>hlsgh67</name>
<cmt>q</cmt>
<desc>Ghoy Sentier n°67 </desc>
<link href="https://chemins.be/ghoy/sentier/67"/><trkseg>
<trkpt lat="50.740254" lon="3.799391"><time>2026-05-02T22:23:25Z</time></trkpt>
<trkpt lat="50.739666" lon="3.799377"><time>2026-05-02T22:33:25Z</time></trkpt>
<trkpt lat="50.738445" lon="3.796826"><time>2026-05-02T22:43:25Z</time></trkpt>
<trkpt lat="50.738051" lon="3.794480"><time>2026-05-02T22:53:25Z</time></trkpt>
<trkpt lat="50.737978" lon="3.792856"><time>2026-05-02T23:03:25Z</time></trkpt>
<trkpt lat="50.737594" lon="3.790918"><time>2026-05-02T23:13:25Z</time></trkpt>
<trkpt lat="50.737363" lon="3.790989"><time>2026-05-02T23:23:25Z</time></trkpt>
<trkpt lat="50.736896" lon="3.788629"><time>2026-05-02T23:33:25Z</time></trkpt>
<trkpt lat="50.736629" lon="3.788579"><time>2026-05-02T23:43:25Z</time></trkpt>
<trkpt lat="50.735634" lon="3.788708"><time>2026-05-02T23:53:25Z</time></trkpt>
</trkseg>
</trk>
<trk>
<name>hlsgh68</name>
<cmt>q</cmt>
<desc>Ghoy Sentier n°68 </desc>
<link href="https://chemins.be/ghoy/sentier/68"/><trkseg>
<trkpt lat="50.738272" lon="3.780886"><time>2026-05-02T22:23:25Z</time></trkpt>
<trkpt lat="50.737849" lon="3.780214"><time>2026-05-02T22:33:25Z</time></trkpt>
</trkseg>
</trk>
<trk>
<name>hlsgh69</name>
<cmt>q</cmt>
<desc>Ghoy Sentier n°69 </desc>
<link href="https://chemins.be/ghoy/sentier/69"/><trkseg>
<trkpt lat="50.733769" lon="3.784366"><time>2026-05-02T22:23:25Z</time></trkpt>
<trkpt lat="50.735286" lon="3.785296"><time>2026-05-02T22:33:25Z</time></trkpt>
</trkseg>
</trk>
<trk>
<name>hlsgh70</name>
<cmt>q</cmt>
<desc>Ghoy Sentier n°70 </desc>
<link href="https://chemins.be/ghoy/sentier/70"/><trkseg>
<trkpt lat="50.733456" lon="3.789723"><time>2026-05-02T22:23:25Z</time></trkpt>
<trkpt lat="50.732152" lon="3.790868"><time>2026-05-02T22:33:25Z</time></trkpt>
<trkpt lat="50.731111" lon="3.792320"><time>2026-05-02T22:43:25Z</time></trkpt>
<trkpt lat="50.729703" lon="3.792177"><time>2026-05-02T22:53:25Z</time></trkpt>
</trkseg>
</trk>
<trk>
<name>hlsgh71</name>
<cmt>q</cmt>
<desc>Ghoy Sentier n°71 </desc>
<link href="https://chemins.be/ghoy/sentier/71"/><trkseg>
<trkpt lat="50.735095" lon="3.796154"><time>2026-05-02T22:23:25Z</time></trkpt>
<trkpt lat="50.735806" lon="3.795796"><time>2026-05-02T22:33:25Z</time></trkpt>
<trkpt lat="50.736109" lon="3.795274"><time>2026-05-02T22:43:25Z</time></trkpt>
<trkpt lat="50.736981" lon="3.795008"><time>2026-05-02T22:53:25Z</time></trkpt>
<trkpt lat="50.738105" lon="3.794666"><time>2026-05-02T23:03:25Z</time></trkpt>
</trkseg>
</trk>
<trk>
<name>hlsgh72</name>
<cmt>q</cmt>
<desc>Ghoy Sentier n°72 </desc>
<link href="https://chemins.be/ghoy/sentier/72"/><trkseg>
<trkpt lat="50.737327" lon="3.793364"><time>2026-05-02T22:23:25Z</time></trkpt>
<trkpt lat="50.737323" lon="3.794895"><time>2026-05-02T22:33:25Z</time></trkpt>
<trkpt lat="50.736965" lon="3.794966"><time>2026-05-02T22:43:25Z</time></trkpt>
<trkpt lat="50.737295" lon="3.796940"><time>2026-05-02T22:53:25Z</time></trkpt>
<trkpt lat="50.737725" lon="3.797820"><time>2026-05-02T23:03:25Z</time></trkpt>
<trkpt lat="50.738069" lon="3.800560"><time>2026-05-02T23:13:25Z</time></trkpt>
<trkpt lat="50.738094" lon="3.802377"><time>2026-05-02T23:23:25Z</time></trkpt>
<trkpt lat="50.738114" lon="3.803857"><time>2026-05-02T23:33:25Z</time></trkpt>
<trkpt lat="50.737984" lon="3.804002"><time>2026-05-02T23:43:25Z</time></trkpt>
<trkpt lat="50.737869" lon="3.805353"><time>2026-05-02T23:53:25Z</time></trkpt>
</trkseg>
</trk>
<trk>
<name>hlsgh73</name>
<cmt>q</cmt>
<desc>Ghoy Sentier n°73 </desc>
<link href="https://chemins.be/ghoy/sentier/73"/><trkseg>
<trkpt lat="50.735085" lon="3.794399"><time>2026-05-02T22:23:25Z</time></trkpt>
<trkpt lat="50.734272" lon="3.796511"><time>2026-05-02T22:33:25Z</time></trkpt>
<trkpt lat="50.733393" lon="3.797970"><time>2026-05-02T22:43:25Z</time></trkpt>
</trkseg>
</trk>
<trk>
<name>hlsgh74</name>
<cmt>v</cmt>
<desc>Ghoy Sentier n°74 </desc>
<link href="https://chemins.be/ghoy/sentier/74"/><trkseg>
<trkpt lat="50.735142" lon="3.795103"><time>2026-05-02T22:23:25Z</time></trkpt>
<trkpt lat="50.733928" lon="3.795062"><time>2026-05-02T22:33:25Z</time></trkpt>
<trkpt lat="50.732879" lon="3.795471"><time>2026-05-02T22:43:25Z</time></trkpt>
<trkpt lat="50.731982" lon="3.795893"><time>2026-05-02T22:53:25Z</time></trkpt>
</trkseg>
</trk>
<trk>
<name>hlsgh75</name>
<cmt>q</cmt>
<desc>Ghoy Sentier n°75 </desc>
<link href="https://chemins.be/ghoy/sentier/75"/><trkseg>
<trkpt lat="50.739657" lon="3.801859"><time>2026-05-02T22:23:25Z</time></trkpt>
<trkpt lat="50.739175" lon="3.801869"><time>2026-05-02T22:33:25Z</time></trkpt>
<trkpt lat="50.738123" lon="3.800474"><time>2026-05-02T22:43:25Z</time></trkpt>
<trkpt lat="50.735552" lon="3.798221"><time>2026-05-02T22:53:25Z</time></trkpt>
<trkpt lat="50.735217" lon="3.798214"><time>2026-05-02T23:03:25Z</time></trkpt>
</trkseg>
</trk>
<trk>
<name>hlsgh76</name>
<cmt>q</cmt>
<desc>Ghoy Sentier n°76 </desc>
<link href="https://chemins.be/ghoy/sentier/76"/><trkseg>
<trkpt lat="50.736954" lon="3.802760"><time>2026-05-02T22:23:25Z</time></trkpt>
<trkpt lat="50.738093" lon="3.802359"><time>2026-05-02T22:33:25Z</time></trkpt>
<trkpt lat="50.739118" lon="3.801862"><time>2026-05-02T22:43:25Z</time></trkpt>
</trkseg>
</trk>
<trk>
<name>hlsgh77</name>
<cmt>q</cmt>
<desc>Ghoy Sentier n°77 </desc>
<link href="https://chemins.be/ghoy/sentier/77"/><trkseg>
<trkpt lat="50.739794" lon="3.805268"><time>2026-05-02T22:23:25Z</time></trkpt>
<trkpt lat="50.740263" lon="3.802657"><time>2026-05-02T22:33:25Z</time></trkpt>
<trkpt lat="50.740490" lon="3.802235"><time>2026-05-02T22:43:25Z</time></trkpt>
<trkpt lat="50.740329" lon="3.801291"><time>2026-05-02T22:53:25Z</time></trkpt>
<trkpt lat="50.740137" lon="3.801048"><time>2026-05-02T23:03:25Z</time></trkpt>
</trkseg>
</trk>
<trk>
<name>hlsgh78</name>
<cmt>q</cmt>
<desc>Ghoy Sentier n°78 </desc>
<link href="https://chemins.be/ghoy/sentier/78"/><trkseg>
<trkpt lat="50.738089" lon="3.809835"><time>2026-05-02T22:23:25Z</time></trkpt>
<trkpt lat="50.740133" lon="3.808401"><time>2026-05-02T22:33:25Z</time></trkpt>
</trkseg></trk>
<trk>
<name>hlsgh78</name>
<cmt>r</cmt>
<desc>Ghoy Sentier n°78 </desc>
<link href="https://chemins.be/ghoy/sentier/78"/><trkseg>
<trkpt lat="50.740133" lon="3.808401"><time>2026-05-02T22:33:25Z</time></trkpt>
<trkpt lat="50.740515" lon="3.808132"><time>2026-05-02T22:43:25Z</time></trkpt>
</trkseg></trk>
<trk>
<name>hlsgh78</name>
<cmt>q</cmt>
<desc>Ghoy Sentier n°78 </desc>
<link href="https://chemins.be/ghoy/sentier/78"/><trkseg>
<trkpt lat="50.740515" lon="3.808132"><time>2026-05-02T22:43:25Z</time></trkpt>
<trkpt lat="50.741561" lon="3.807506"><time>2026-05-02T22:53:25Z</time></trkpt>
</trkseg>
</trk>
<trk>
<name>hlsgh79</name>
<cmt>q</cmt>
<desc>Ghoy Sentier n°79 Quatre Vents</desc>
<link href="https://chemins.be/ghoy/sentier/79"/><trkseg>
<trkpt lat="50.739984" lon="3.807557"><time>2026-05-02T22:23:25Z</time></trkpt>
<trkpt lat="50.738138" lon="3.808057"><time>2026-05-02T22:33:25Z</time></trkpt>
</trkseg></trk>
<trk>
<name>hlsgh79</name>
<cmt>r</cmt>
<desc>Ghoy Sentier n°79 Quatre Vents</desc>
<link href="https://chemins.be/ghoy/sentier/79"/><trkseg>
<trkpt lat="50.738138" lon="3.808057"><time>2026-05-02T22:33:25Z</time></trkpt>
<trkpt lat="50.738269" lon="3.807678"><time>2026-05-02T22:43:25Z</time></trkpt>
</trkseg></trk>
<trk>
<name>hlsgh79</name>
<cmt>q</cmt>
<desc>Ghoy Sentier n°79 Quatre Vents</desc>
<link href="https://chemins.be/ghoy/sentier/79"/><trkseg>
<trkpt lat="50.738269" lon="3.807678"><time>2026-05-02T22:43:25Z</time></trkpt>
<trkpt lat="50.737504" lon="3.807828"><time>2026-05-02T22:53:25Z</time></trkpt>
<trkpt lat="50.735928" lon="3.808522"><time>2026-05-02T23:03:25Z</time></trkpt>
<trkpt lat="50.735168" lon="3.807657"><time>2026-05-02T23:13:25Z</time></trkpt>
<trkpt lat="50.734797" lon="3.807929"><time>2026-05-02T23:23:25Z</time></trkpt>
</trkseg>
</trk>
<trk>
<name>hlsgh8</name>
<cmt>v</cmt>
<desc>Ghoy Chemin n°8 Dommelstraat / Haies</desc>
<link href="https://chemins.be/ghoy/chemin/8"/><trkseg>
<trkpt lat="50.742179" lon="3.828667"><time>2026-05-02T22:23:25Z</time></trkpt>
<trkpt lat="50.742611" lon="3.830632"><time>2026-05-02T22:33:25Z</time></trkpt>
<trkpt lat="50.743332" lon="3.834988"><time>2026-05-02T22:43:25Z</time></trkpt>
</trkseg>
</trk>
<trk>
<name>hlsgh81</name>
<cmt>q</cmt>
<desc>Ghoy Sentier n°81 </desc>
<link href="https://chemins.be/ghoy/sentier/81"/><trkseg>
<trkpt lat="50.738898" lon="3.805388"><time>2026-05-02T22:23:25Z</time></trkpt>
<trkpt lat="50.737579" lon="3.806755"><time>2026-05-02T22:33:25Z</time></trkpt>
</trkseg>
</trk>
<trk>
<name>hlsgh82</name>
<cmt>q</cmt>
<desc>Ghoy Sentier n°82 </desc>
<link href="https://chemins.be/ghoy/sentier/82"/><trkseg>
<trkpt lat="50.738851" lon="3.805446"><time>2026-05-02T22:23:25Z</time></trkpt>
<trkpt lat="50.737853" lon="3.805371"><time>2026-05-02T22:33:25Z</time></trkpt>
<trkpt lat="50.737119" lon="3.805796"><time>2026-05-02T22:43:25Z</time></trkpt>
</trkseg>
</trk>
<trk>
<name>hlsgh82bis</name>
<cmt>q</cmt>
<desc>Ghoy Sentier n°82bis </desc>
<link href="https://chemins.be/ghoy/sentier/82bis"/><trkseg>
<trkpt lat="50.737866" lon="3.805353"><time>2026-05-02T22:23:25Z</time></trkpt>
<trkpt lat="50.736789" lon="3.804384"><time>2026-05-02T22:33:25Z</time></trkpt>
</trkseg>
</trk>
<trk>
<name>hlsgh83</name>
<cmt>v</cmt>
<desc>Ghoy Sentier n°83 </desc>
<link href="https://chemins.be/ghoy/sentier/83"/><trkseg>
<trkpt lat="50.730969" lon="3.807968"><time>2026-05-02T22:23:25Z</time></trkpt>
<trkpt lat="50.732453" lon="3.806920"><time>2026-05-02T22:33:25Z</time></trkpt>
<trkpt lat="50.732670" lon="3.806800"><time>2026-05-02T22:43:25Z</time></trkpt>
</trkseg></trk>
<trk>
<name>hlsgh83</name>
<cmt>q</cmt>
<desc>Ghoy Sentier n°83 </desc>
<link href="https://chemins.be/ghoy/sentier/83"/><trkseg>
<trkpt lat="50.732670" lon="3.806800"><time>2026-05-02T22:43:25Z</time></trkpt>
<trkpt lat="50.733783" lon="3.806938"><time>2026-05-02T22:53:25Z</time></trkpt>
<trkpt lat="50.734685" lon="3.806234"><time>2026-05-02T23:03:25Z</time></trkpt>
<trkpt lat="50.735082" lon="3.805925"><time>2026-05-02T23:13:25Z</time></trkpt>
<trkpt lat="50.735587" lon="3.805753"><time>2026-05-02T23:23:25Z</time></trkpt>
<trkpt lat="50.736673" lon="3.804406"><time>2026-05-02T23:33:25Z</time></trkpt>
<trkpt lat="50.737945" lon="3.804028"><time>2026-05-02T23:43:25Z</time></trkpt>
<trkpt lat="50.738606" lon="3.804448"><time>2026-05-02T23:53:25Z</time></trkpt>
<trkpt lat="50.739160" lon="3.804572"><time>2026-05-03T00:03:25Z</time></trkpt>
</trkseg>
</trk>
<trk>
<name>hlsgh84</name>
<cmt>q</cmt>
<desc>Ghoy Sentier n°84 </desc>
<link href="https://chemins.be/ghoy/sentier/84"/><trkseg>
<trkpt lat="50.735131" lon="3.810397"><time>2026-05-02T22:23:25Z</time></trkpt>
<trkpt lat="50.734768" lon="3.807876"><time>2026-05-02T22:33:25Z</time></trkpt>
<trkpt lat="50.734666" lon="3.806202"><time>2026-05-02T22:43:25Z</time></trkpt>
<trkpt lat="50.734282" lon="3.804582"><time>2026-05-02T22:53:25Z</time></trkpt>
<trkpt lat="50.734128" lon="3.803932"><time>2026-05-02T23:03:25Z</time></trkpt>
<trkpt lat="50.732111" lon="3.801335"><time>2026-05-02T23:13:25Z</time></trkpt>
</trkseg>
</trk>
<trk>
<name>hlsgh84bis</name>
<cmt>q</cmt>
<desc>Ghoy Sentier n°84bis </desc>
<link href="https://chemins.be/ghoy/sentier/84bis"/><trkseg>
<trkpt lat="50.733713" lon="3.798543"><time>2026-05-02T22:23:25Z</time></trkpt>
<trkpt lat="50.733759" lon="3.799227"><time>2026-05-02T22:33:25Z</time></trkpt>
<trkpt lat="50.733616" lon="3.799677"><time>2026-05-02T22:43:25Z</time></trkpt>
<trkpt lat="50.733873" lon="3.802405"><time>2026-05-02T22:53:25Z</time></trkpt>
<trkpt lat="50.734122" lon="3.803864"><time>2026-05-02T23:03:25Z</time></trkpt>
</trkseg>
</trk>
<trk>
<name>hlsgh85</name>
<cmt>v</cmt>
<desc>Ghoy Sentier n°85 </desc>
<link href="https://chemins.be/ghoy/sentier/85"/><trkseg>
<trkpt lat="50.734418" lon="3.810851"><time>2026-05-02T22:23:25Z</time></trkpt>
<trkpt lat="50.734257" lon="3.811008"><time>2026-05-02T22:33:25Z</time></trkpt>
<trkpt lat="50.734132" lon="3.811123"><time>2026-05-02T22:43:25Z</time></trkpt>
<trkpt lat="50.734078" lon="3.811138"><time>2026-05-02T22:53:25Z</time></trkpt>
<trkpt lat="50.732954" lon="3.811180"><time>2026-05-02T23:03:25Z</time></trkpt>
<trkpt lat="50.731957" lon="3.811262"><time>2026-05-02T23:13:25Z</time></trkpt>
<trkpt lat="50.731858" lon="3.811334"><time>2026-05-02T23:23:25Z</time></trkpt>
</trkseg>
</trk>
<trk>
<name>hlsgh86</name>
<cmt>v</cmt>
<desc>Ghoy Sentier n°86 </desc>
<link href="https://chemins.be/ghoy/sentier/86"/><trkseg>
<trkpt lat="50.726720" lon="3.813393"><time>2026-05-02T22:23:25Z</time></trkpt>
<trkpt lat="50.727170" lon="3.814347"><time>2026-05-02T22:33:25Z</time></trkpt>
<trkpt lat="50.727677" lon="3.814275"><time>2026-05-02T22:43:25Z</time></trkpt>
</trkseg></trk>
<trk>
<name>hlsgh86</name>
<cmt>q</cmt>
<desc>Ghoy Sentier n°86 </desc>
<link href="https://chemins.be/ghoy/sentier/86"/><trkseg>
<trkpt lat="50.727677" lon="3.814275"><time>2026-05-02T22:43:25Z</time></trkpt>
<trkpt lat="50.729234" lon="3.813643"><time>2026-05-02T22:53:25Z</time></trkpt>
<trkpt lat="50.730952" lon="3.812425"><time>2026-05-02T23:03:25Z</time></trkpt>
<trkpt lat="50.731873" lon="3.811419"><time>2026-05-02T23:13:25Z</time></trkpt>
<trkpt lat="50.733747" lon="3.809588"><time>2026-05-02T23:23:25Z</time></trkpt>
<trkpt lat="50.734939" lon="3.808997"><time>2026-05-02T23:33:25Z</time></trkpt>
</trkseg>
</trk>
<trk>
<name>hlsgh87</name>
<cmt>q</cmt>
<desc>Ghoy Sentier n°87 </desc>
<link href="https://chemins.be/ghoy/sentier/87"/><trkseg>
<trkpt lat="50.742150" lon="3.811744"><time>2026-05-02T22:23:25Z</time></trkpt>
<trkpt lat="50.741471" lon="3.812009"><time>2026-05-02T22:33:25Z</time></trkpt>
</trkseg></trk>
<trk>
<name>hlsgh87</name>
<cmt>r</cmt>
<desc>Ghoy Sentier n°87 </desc>
<link href="https://chemins.be/ghoy/sentier/87"/><trkseg>
<trkpt lat="50.741471" lon="3.812009"><time>2026-05-02T22:33:25Z</time></trkpt>
<trkpt lat="50.741444" lon="3.812774"><time>2026-05-02T22:43:25Z</time></trkpt>
</trkseg></trk>
<trk>
<name>hlsgh87</name>
<cmt>q</cmt>
<desc>Ghoy Sentier n°87 </desc>
<link href="https://chemins.be/ghoy/sentier/87"/><trkseg>
<trkpt lat="50.741444" lon="3.812774"><time>2026-05-02T22:43:25Z</time></trkpt>
<trkpt lat="50.740007" lon="3.813067"><time>2026-05-02T22:53:25Z</time></trkpt>
<trkpt lat="50.739380" lon="3.813839"><time>2026-05-02T23:03:25Z</time></trkpt>
</trkseg>
</trk>
<trk>
<name>hlsgh88</name>
<cmt>q</cmt>
<desc>Ghoy Sentier n°88 </desc>
<link href="https://chemins.be/ghoy/sentier/88"/><trkseg>
<trkpt lat="50.730113" lon="3.810737"><time>2026-05-02T22:23:25Z</time></trkpt>
<trkpt lat="50.730342" lon="3.810918"><time>2026-05-02T22:33:25Z</time></trkpt>
<trkpt lat="50.730904" lon="3.812468"><time>2026-05-02T22:43:25Z</time></trkpt>
</trkseg></trk>
<trk>
<name>hlsgh88</name>
<cmt>v</cmt>
<desc>Ghoy Sentier n°88 </desc>
<link href="https://chemins.be/ghoy/sentier/88"/><trkseg>
<trkpt lat="50.730904" lon="3.812468"><time>2026-05-02T22:43:25Z</time></trkpt>
<trkpt lat="50.732087" lon="3.815391"><time>2026-05-02T22:53:25Z</time></trkpt>
</trkseg>
</trk>
<trk>
<name>hlsgh89</name>
<cmt>q</cmt>
<desc>Ghoy Sentier n°89 </desc>
<link href="https://chemins.be/ghoy/sentier/89"/><trkseg>
<trkpt lat="50.728818" lon="3.812474"><time>2026-05-02T22:23:25Z</time></trkpt>
<trkpt lat="50.727883" lon="3.813332"><time>2026-05-02T22:33:25Z</time></trkpt>
<trkpt lat="50.727161" lon="3.814336"><time>2026-05-02T22:43:25Z</time></trkpt>
<trkpt lat="50.726237" lon="3.816293"><time>2026-05-02T22:53:25Z</time></trkpt>
</trkseg>
</trk>
<trk>
<name>hlsgh90</name>
<cmt>v</cmt>
<desc>Ghoy Sentier n°90 </desc>
<link href="https://chemins.be/ghoy/sentier/90"/><trkseg>
<trkpt lat="50.729379" lon="3.810586"><time>2026-05-02T22:23:25Z</time></trkpt>
<trkpt lat="50.729075" lon="3.809419"><time>2026-05-02T22:33:25Z</time></trkpt>
</trkseg>
</trk>
<trk>
<name>hlsgh91</name>
<cmt>v</cmt>
<desc>Ghoy Sentier n°91 </desc>
<link href="https://chemins.be/ghoy/sentier/91"/><trkseg>
<trkpt lat="50.729686" lon="3.806746"><time>2026-05-02T22:23:25Z</time></trkpt>
<trkpt lat="50.729971" lon="3.806857"><time>2026-05-02T22:33:25Z</time></trkpt>
<trkpt lat="50.730251" lon="3.807441"><time>2026-05-02T22:43:25Z</time></trkpt>
<trkpt lat="50.730501" lon="3.808325"><time>2026-05-02T22:53:25Z</time></trkpt>
<trkpt lat="50.730990" lon="3.809381"><time>2026-05-02T23:03:25Z</time></trkpt>
<trkpt lat="50.731460" lon="3.810149"><time>2026-05-02T23:13:25Z</time></trkpt>
<trkpt lat="50.731395" lon="3.810492"><time>2026-05-02T23:23:25Z</time></trkpt>
</trkseg>
</trk>
<trk>
<name>hlsgh92</name>
<cmt>d</cmt>
<desc>Ghoy Sentier n°92 </desc>
<link href="https://chemins.be/ghoy/sentier/92"/><trkseg>
<trkpt lat="50.725803" lon="3.809349"><time>2026-05-02T22:23:25Z</time></trkpt>
<trkpt lat="50.727216" lon="3.808506"><time>2026-05-02T22:33:25Z</time></trkpt>
</trkseg></trk>
<trk>
<name>hlsgh92</name>
<cmt>v</cmt>
<desc>Ghoy Sentier n°92 </desc>
<link href="https://chemins.be/ghoy/sentier/92"/><trkseg>
<trkpt lat="50.727216" lon="3.808506"><time>2026-05-02T22:33:25Z</time></trkpt>
<trkpt lat="50.728117" lon="3.807968"><time>2026-05-02T22:43:25Z</time></trkpt>
<trkpt lat="50.728469" lon="3.805737"><time>2026-05-02T22:53:25Z</time></trkpt>
<trkpt lat="50.728768" lon="3.805153"><time>2026-05-02T23:03:25Z</time></trkpt>
<trkpt lat="50.728923" lon="3.804896"><time>2026-05-02T23:13:25Z</time></trkpt>
<trkpt lat="50.728973" lon="3.804816"><time>2026-05-02T23:23:25Z</time></trkpt>
<trkpt lat="50.729013" lon="3.804756"><time>2026-05-02T23:33:25Z</time></trkpt>
<trkpt lat="50.729079" lon="3.804676"><time>2026-05-02T23:43:25Z</time></trkpt>
<trkpt lat="50.729853" lon="3.803456"><time>2026-05-02T23:53:25Z</time></trkpt>
</trkseg>
</trk>
<trk>
<name>hlsgh93</name>
<cmt>q</cmt>
<desc>Ghoy Sentier n°93 </desc>
<link href="https://chemins.be/ghoy/sentier/93"/><trkseg>
<trkpt lat="50.729379" lon="3.806231"><time>2026-05-02T22:23:25Z</time></trkpt>
<trkpt lat="50.729271" lon="3.806445"><time>2026-05-02T22:33:25Z</time></trkpt>
<trkpt lat="50.728290" lon="3.806776"><time>2026-05-02T22:43:25Z</time></trkpt>
</trkseg>
</trk>
<trk>
<name>hlsgh94</name>
<cmt>v</cmt>
<desc>Ghoy Sentier n°94 </desc>
<link href="https://chemins.be/ghoy/sentier/94"/><trkseg>
<trkpt lat="50.727492" lon="3.809641"><time>2026-05-02T22:23:25Z</time></trkpt>
<trkpt lat="50.727215" lon="3.808474"><time>2026-05-02T22:33:25Z</time></trkpt>
<trkpt lat="50.726525" lon="3.804697"><time>2026-05-02T22:43:25Z</time></trkpt>
<trkpt lat="50.725830" lon="3.802672"><time>2026-05-02T22:53:25Z</time></trkpt>
</trkseg>
</trk>
<trk>
<name>hlsgh95</name>
<cmt>v</cmt>
<desc>Ghoy Sentier n°95 </desc>
<link href="https://chemins.be/ghoy/sentier/95"/><trkseg>
<trkpt lat="50.727495" lon="3.809678"><time>2026-05-02T22:23:25Z</time></trkpt>
<trkpt lat="50.726813" lon="3.809841"><time>2026-05-02T22:33:25Z</time></trkpt>
</trkseg></trk>
<trk>
<name>hlsgh95</name>
<cmt>q</cmt>
<desc>Ghoy Sentier n°95 </desc>
<link href="https://chemins.be/ghoy/sentier/95"/><trkseg>
<trkpt lat="50.726813" lon="3.809841"><time>2026-05-02T22:33:25Z</time></trkpt>
<trkpt lat="50.726155" lon="3.810249"><time>2026-05-02T22:43:25Z</time></trkpt>
</trkseg>
</trk>
<trk>
<name>hlsgh96</name>
<cmt>q</cmt>
<desc>Ghoy Sentier n°96 </desc>
<link href="https://chemins.be/ghoy/sentier/96"/><trkseg>
<trkpt lat="50.732973" lon="3.814539"><time>2026-05-02T22:23:25Z</time></trkpt>
<trkpt lat="50.734084" lon="3.811163"><time>2026-05-02T22:33:25Z</time></trkpt>
</trkseg>
</trk>
<trk>
<name>hlsgh97</name>
<cmt>q</cmt>
<desc>Ghoy Sentier n°97 </desc>
<link href="https://chemins.be/ghoy/sentier/97"/><trkseg>
<trkpt lat="50.725767" lon="3.808997"><time>2026-05-02T22:23:25Z</time></trkpt>
<trkpt lat="50.724567" lon="3.808026"><time>2026-05-02T22:33:25Z</time></trkpt>
<trkpt lat="50.725605" lon="3.805116"><time>2026-05-02T22:43:25Z</time></trkpt>
</trkseg>
</trk>
<trk>
<name>hlsgh98</name>
<cmt>q</cmt>
<desc>Ghoy Sentier n°98 </desc>
<link href="https://chemins.be/ghoy/sentier/98"/><trkseg>
<trkpt lat="50.730226" lon="3.803199"><time>2026-05-02T22:23:25Z</time></trkpt>
<trkpt lat="50.729694" lon="3.801551"><time>2026-05-02T22:33:25Z</time></trkpt>
<trkpt lat="50.728575" lon="3.800006"><time>2026-05-02T22:43:25Z</time></trkpt>
<trkpt lat="50.727836" lon="3.797963"><time>2026-05-02T22:53:25Z</time></trkpt>
</trkseg>
</trk>
<trk>
<name>hlsgh99</name>
<cmt>q</cmt>
<desc>Ghoy Sentier n°99 </desc>
<link href="https://chemins.be/ghoy/sentier/99"/><trkseg>
<trkpt lat="50.722640" lon="3.790947"><time>2026-05-02T22:23:25Z</time></trkpt>
<trkpt lat="50.723586" lon="3.792896"><time>2026-05-02T22:33:25Z</time></trkpt>
<trkpt lat="50.724558" lon="3.793754"><time>2026-05-02T22:43:25Z</time></trkpt>
<trkpt lat="50.725042" lon="3.793668"><time>2026-05-02T22:53:25Z</time></trkpt>
</trkseg>
</trk>
<trk>
<name>hlsghi1</name>
<cmt>q</cmt>
<desc>Ghoy Chemin n°i1 </desc>
<link href="https://chemins.be/ghoy/chemin/i1"/><trkseg>
<trkpt lat="50.750162" lon="3.805929"><time>2026-05-02T22:23:25Z</time></trkpt>
<trkpt lat="50.749962" lon="3.805982"><time>2026-05-02T22:33:25Z</time></trkpt>
<trkpt lat="50.749029" lon="3.806519"><time>2026-05-02T22:43:25Z</time></trkpt>
<trkpt lat="50.748974" lon="3.806691"><time>2026-05-02T22:53:25Z</time></trkpt>
<trkpt lat="50.749341" lon="3.808772"><time>2026-05-02T23:03:25Z</time></trkpt>
<trkpt lat="50.749463" lon="3.809437"><time>2026-05-02T23:13:25Z</time></trkpt>
</trkseg>
</trk>
<trk>
<name>hlsghi2</name>
<cmt>v</cmt>
<desc>Ghoy Sentier n°i2 </desc>
<link href="https://chemins.be/ghoy/sentier/i2"/><trkseg>
<trkpt lat="50.732686" lon="3.806800"><time>2026-05-02T22:23:25Z</time></trkpt>
<trkpt lat="50.732577" lon="3.805787"><time>2026-05-02T22:33:25Z</time></trkpt>
</trkseg>
</trk>
<trk>
<name>hlsghi3</name>
<cmt>v</cmt>
<desc>Ghoy Sentier n°i3 </desc>
<link href="https://chemins.be/ghoy/sentier/i3"/><trkseg>
<trkpt lat="50.727753" lon="3.812296"><time>2026-05-02T22:23:25Z</time></trkpt>
<trkpt lat="50.727715" lon="3.812013"><time>2026-05-02T22:33:25Z</time></trkpt>
</trkseg>
</trk>
<trk>
<name>hlsghi4</name>
<cmt>v</cmt>
<desc>Ghoy Chemin n°i4 </desc>
<link href="https://chemins.be/ghoy/chemin/i4"/><trkseg>
<trkpt lat="50.723816" lon="3.825679"><time>2026-05-02T22:23:25Z</time></trkpt>
<trkpt lat="50.721916" lon="3.822952"><time>2026-05-02T22:33:25Z</time></trkpt>
<trkpt lat="50.721240" lon="3.821717"><time>2026-05-02T22:43:25Z</time></trkpt>
<trkpt lat="50.720787" lon="3.820644"><time>2026-05-02T22:53:25Z</time></trkpt>
</trkseg>
</trk>
<trk>
<name>hlsghi5</name>
<cmt>v</cmt>
<desc>Ghoy Chemin n°i5 </desc>
<link href="https://chemins.be/ghoy/chemin/i5"/><trkseg>
<trkpt lat="50.749616" lon="3.797740"><time>2026-05-02T22:23:25Z</time></trkpt>
<trkpt lat="50.748292" lon="3.798512"><time>2026-05-02T22:33:25Z</time></trkpt>
<trkpt lat="50.748326" lon="3.798877"><time>2026-05-02T22:43:25Z</time></trkpt>
<trkpt lat="50.746853" lon="3.799896"><time>2026-05-02T22:53:25Z</time></trkpt>
<trkpt lat="50.746710" lon="3.799918"><time>2026-05-02T23:03:25Z</time></trkpt>
</trkseg>
</trk>
<trk>
<name>hlsghL87</name>
<cmt>v</cmt>
<desc>Ghoy Chemin n°L87 Ravel L87</desc>
<link href="https://chemins.be/ghoy/chemin/L87"/><trkseg>
<trkpt lat="50.725998" lon="3.829433"><time>2026-05-02T22:23:25Z</time></trkpt>
<trkpt lat="50.725780" lon="3.828915"><time>2026-05-02T22:33:25Z</time></trkpt>
<trkpt lat="50.723702" lon="3.825742"><time>2026-05-02T22:43:25Z</time></trkpt>
<trkpt lat="50.721800" lon="3.823020"><time>2026-05-02T22:53:25Z</time></trkpt>
<trkpt lat="50.721379" lon="3.822261"><time>2026-05-02T23:03:25Z</time></trkpt>
<trkpt lat="50.721186" lon="3.821770"><time>2026-05-02T23:13:25Z</time></trkpt>
<trkpt lat="50.720913" lon="3.821163"><time>2026-05-02T23:23:25Z</time></trkpt>
<trkpt lat="50.720625" lon="3.820488"><time>2026-05-02T23:33:25Z</time></trkpt>
<trkpt lat="50.720105" lon="3.818735"><time>2026-05-02T23:43:25Z</time></trkpt>
<trkpt lat="50.719695" lon="3.816935"><time>2026-05-02T23:53:25Z</time></trkpt>
<trkpt lat="50.719572" lon="3.816086"><time>2026-05-03T00:03:25Z</time></trkpt>
</trkseg>
</trk>
</gpx>